GFSNE_sfc_thetae_000.txt.gz
Theta_e
291 290 291 292 293 293 292 291 288 284 286 291 291 296 297 298 301 302 303 305 304 302 302 304 306 308 308 310 310 312 314 321 321 321 321 321 322 322
291 290 290 291 292 292 292 291 290 288 284 289 291 294 296 298 299 299 300 303 302 300 299 299 301 303 303 305 306 307 308 311 317 319 319 320 320 321
288 288 288 289 289 289 290 290 289 289 286 288 291 293 293 294 296 297 298 298 299 299 296 297 298 298 298 299 301 302 304 308 307 314 317 318 320 320
286 286 286 288 287 287 287 287 287 287 286 284 287 288 289 292 292 292 294 298 298 299 299 299 299 297 298 298 297 297 300 301 303 305 312 315 317 318
285 285 285 285 283 284 283 283 284 287 285 284 283 286 288 290 290 291 291 292 296 300 298 297 295 296 296 297 297 297 297 298 298 299 300 308 311 314
283 283 283 283 282 281 282 282 283 282 283 283 283 284 284 287 287 286 287 289 289 293 297 295 295 296 296 296 295 297 298 297 298 298 297 298 302 308
282 282 282 283 286 286 284 283 282 281 281 280 280 281 282 282 282 284 283 284 286 287 289 290 290 290 292 294 296 297 297 298 297 297 298 297 297 302
280 280 281 283 283 284 285 285 284 280 279 279 279 279 279 280 282 283 283 283 283 286 287 285 289 290 290 290 293 292 292 294 295 297 297 297 297 298
280 279 280 281 282 281 283 284 284 285 283 281 280 280 281 282 282 281 281 282 283 287 287 285 284 286 284 288 290 291 292 292 293 294 296 296 295 296
280 280 280 280 281 281 281 280 281 281 282 282 282 282 283 284 283 283 282 282 283 287 287 284 283 276 276 280 288 289 290 290 291 292 294 295 295 294
281 281 281 281 283 284 282 281 281 282 284 285 286 286 286 286 285 283 281 280 278 280 284 285 282 281 275 276 277 286 288 289 290 290 293 294 295 294
279 280 282 281 283 283 281 280 280 281 282 282 282 284 286 285 286 286 284 280 279 273 281 282 276 277 277 272 273 275 278 286 288 289 292 294 294 296
278 279 280 282 282 283 283 281 281 282 282 282 282 282 282 282 283 285 285 284 281 280 282 282 276 274 274 274 272 273 276 279 285 286 290 293 294 296
279 280 281 283 283 284 283 282 283 282 282 281 280 280 281 281 283 284 284 285 285 284 283 283 278 277 274 270 273 272 272 276 283 283 284 288 291 293
281 281 282 281 281 281 282 282 281 281 280 279 279 279 281 282 283 283 281 283 283 285 285 284 283 279 281 277 274 270 272 273 277 280 280 281 282 285
279 278 277 278 277 276 277 279 279 280 280 280 279 280 281 281 281 281 279 282 282 283 285 285 284 283 280 275 278 271 275 275 273 279 279 279 280 281
278 275 275 274 274 275 276 276 278 279 279 280 280 279 279 279 280 280 282 282 281 277 279 282 284 283 281 279 275 278 274 276 276 277 279 277 278 279
277 273 272 273 273 274 273 274 276 277 279 275 273 276 276 278 279 280 281 281 279 278 277 277 278 278 278 277 280 277 275 277 275 277 279 276 276 278
276 274 273 273 272 273 273 274 274 276 278 278 280 280 280 278 282 280 280 279 277 278 277 277 278 277 273 269 273 280 276 277 275 276 278 277 276 277
274 273 273 273 274 273 273 272 273 274 274 276 276 278 278 277 275 277 276 275 274 274 275 277 277 277 274 270 268 269 279 276 277 275 275 277 278 280
272 272 272 272 272 273 272 271 270 272 272 273 273 274 275 271 273 273 273 272 271 274 273 274 274 275 274 272 269 268 272 280 279 276 276 275 274 274
269 270 270 271 270 271 271 272 271 271 271 271 272 272 273 272 273 274 272 270 271 270 272 274 276 276 271 272 266 263 268 272 278 279 279 277 273 271
268 268 268 268 269 269 270 270 272 271 271 270 270 270 271 271 271 270 269 270 272 273 273 272 273 273 272 270 269 266 267 269 270 269 268 276 279 278

GFSNE_sfc_thetae_003.txt.gz
Theta_e
291 289 288 289 289 290 291 290 287 283 283 287 288 293 294 296 298 300 301 302 302 300 300 304 305 307 307 307 308 309 310 310 314 321 322 322 322 322
291 289 288 289 289 289 290 290 289 286 283 286 288 289 293 295 297 298 298 301 301 300 298 298 299 302 303 303 305 306 307 308 308 312 318 320 321 321
287 287 287 287 286 286 287 288 288 288 284 286 288 290 290 291 292 294 296 295 298 298 297 296 296 298 298 297 298 302 302 303 307 308 311 317 320 321
285 285 285 287 285 285 285 285 286 286 285 283 284 286 287 290 291 290 293 295 294 296 297 297 298 297 296 297 297 296 297 298 299 303 305 307 310 319
284 284 284 284 283 283 283 282 283 285 283 282 282 285 286 287 287 289 289 290 292 295 294 295 296 296 296 294 296 296 296 297 297 297 298 299 303 307
282 282 281 281 281 281 281 281 282 281 281 281 281 282 283 285 284 284 285 286 287 291 293 293 294 295 296 296 295 295 296 297 296 296 295 295 295 299
281 281 281 282 285 284 283 282 281 281 281 280 279 279 280 280 281 283 282 283 285 287 287 289 289 292 292 294 295 296 295 294 296 296 296 295 295 296
279 280 280 282 282 283 283 284 283 280 279 278 278 277 278 278 279 279 280 280 280 286 288 287 287 289 290 289 292 292 292 292 293 294 294 295 295 295
279 279 280 281 282 281 282 283 283 284 282 281 279 279 279 280 282 281 280 280 281 283 286 282 281 285 286 288 291 291 291 292 292 292 292 292 293 293
279 280 279 280 280 281 280 280 281 281 281 281 280 281 281 282 282 282 281 281 282 282 284 282 279 280 282 284 288 290 290 290 290 290 290 291 292 292
279 280 279 279 281 283 280 279 280 281 284 285 285 284 285 285 285 282 281 280 278 279 279 282 280 274 274 281 280 287 288 288 288 290 290 290 291 292
278 279 281 280 282 282 280 279 278 279 280 281 282 283 285 284 285 284 283 280 279 276 278 279 278 277 281 272 272 274 276 285 287 287 289 290 291 292
278 278 280 282 282 282 283 281 281 281 280 280 281 282 282 281 282 284 284 283 281 280 281 282 277 276 275 275 270 271 276 274 279 281 286 287 290 292
278 280 280 281 281 281 281 282 282 282 281 280 280 280 280 281 282 283 284 284 285 284 284 283 279 277 275 275 276 270 269 270 272 273 277 284 286 288
281 280 280 279 279 278 279 280 278 279 280 278 279 279 281 282 283 282 283 284 284 285 285 284 282 279 279 280 274 273 272 270 269 270 272 275 280 282
279 278 276 277 275 275 276 277 277 278 278 278 279 279 281 280 281 282 281 281 281 282 284 285 285 284 281 279 279 278 269 274 272 269 270 270 273 278
277 275 274 273 272 273 274 274 275 276 276 278 278 279 279 279 279 279 280 279 280 277 280 282 285 285 284 283 277 276 274 271 272 271 270 270 271 273
276 273 271 271 270 272 271 271 273 274 275 276 275 276 276 277 276 277 281 280 279 278 277 277 278 278 278 278 281 275 276 277 274 270 270 269 270 274
273 272 271 269 271 272 272 271 271 273 274 275 275 278 279 277 278 278 280 280 278 278 277 277 278 278 275 272 274 279 276 276 271 271 270 270 271 274
272 271 270 270 270 271 271 271 270 270 271 272 273 274 274 275 276 277 278 276 274 273 274 276 277 277 276 274 272 273 279 271 267 267 270 274 277 280
269 270 269 269 269 269 269 270 267 268 267 268 269 270 270 273 273 272 273 272 274 275 274 273 273 276 274 274 270 270 271 280 275 269 271 271 272 272
268 268 268 269 268 268 268 268 270 269 269 269 268 268 268 268 267 273 270 269 270 268 270 272 276 276 273 272 268 265 267 270 275 276 278 277 273 270
266 266 267 267 267 268 268 267 268 269 269 267 266 267 265 265 268 267 265 267 268 267 267 269 272 272 271 270 269 267 267 267 268 270 269 275 279 279

GFSNE_sfc_thetae_009.txt.gz
Theta_e
291 291 291 293 293 294 293 292 289 285 287 291 291 295 296 297 297 299 301 299 298 298 298 299 299 300 300 302 303 306 304 305 307 306 307 310 312 317
295 294 294 293 293 293 292 292 291 288 285 289 290 292 294 294 296 298 298 297 298 297 296 297 298 298 298 298 298 301 303 304 305 305 306 307 310 315
293 292 290 291 290 290 291 291 289 289 286 288 291 293 293 293 294 296 297 297 298 296 295 296 296 296 296 297 297 297 299 301 302 302 303 305 307 309
289 289 289 289 289 290 289 289 289 290 288 286 289 290 291 293 294 294 294 295 297 296 295 295 295 295 295 295 296 296 296 296 298 299 300 301 302 304
288 288 287 287 286 287 287 286 286 287 287 286 285 288 289 290 290 291 292 293 294 294 294 293 293 294 294 295 296 296 296 296 295 296 296 296 297 298
287 286 286 285 285 285 284 285 285 285 285 284 284 285 286 288 288 287 288 290 290 290 291 291 291 293 293 294 294 295 296 296 296 295 295 294 294 295
286 286 285 285 284 284 284 284 284 284 283 282 282 283 283 283 283 286 286 287 289 290 289 291 292 292 293 293 293 295 296 296 295 295 295 294 293 294
283 284 284 283 284 283 283 283 284 282 281 281 281 281 282 283 284 283 284 283 282 289 287 287 290 290 292 294 292 293 294 295 294 294 293 293 292 292
282 282 282 282 283 283 283 282 282 282 282 282 280 281 281 283 283 282 283 283 283 286 287 285 289 288 292 292 292 291 292 292 292 292 291 292 291 290
282 282 282 282 283 282 281 282 282 283 283 283 283 282 284 284 284 284 283 284 285 285 287 281 287 287 289 292 291 290 291 292 292 291 290 290 290 290
282 282 282 282 282 283 282 281 282 283 284 284 284 285 285 285 285 284 282 282 281 282 286 283 285 285 287 289 292 290 290 291 291 291 291 290 290 290
281 282 282 282 282 282 282 281 280 281 282 283 284 284 285 286 285 285 285 281 281 281 285 283 284 284 283 290 290 291 291 289 289 290 290 290 289 292
280 281 283 282 281 281 281 280 280 281 281 281 282 283 284 285 285 286 286 285 283 282 286 285 283 285 284 284 287 290 290 289 290 290 288 289 288 288
280 281 283 280 279 279 279 279 279 279 280 280 280 281 282 283 284 285 286 286 287 285 287 286 284 284 283 283 283 288 289 289 289 288 289 288 286 286
281 280 279 279 278 278 277 278 278 279 279 279 280 281 283 284 285 285 286 286 286 286 286 286 286 285 285 284 283 285 286 288 287 287 289 289 290 290
280 280 278 277 277 277 278 278 278 279 278 278 279 281 283 284 283 284 283 284 283 283 286 286 286 286 285 285 284 284 286 285 287 287 288 288 288 288
278 278 276 275 276 276 277 277 277 277 277 278 279 281 282 283 282 284 283 283 282 282 283 286 286 286 286 286 284 285 285 286 288 288 284 287 289 288
276 274 273 273 274 274 275 275 276 276 276 277 278 279 280 281 282 283 283 283 282 283 283 284 285 284 284 282 282 284 285 285 287 286 285 285 287 289
273 272 272 272 273 274 274 274 274 275 276 276 277 277 279 281 282 282 282 282 282 283 284 285 283 282 280 279 281 280 282 284 285 284 284 283 285 287
271 271 271 271 272 272 273 273 274 275 275 275 276 276 277 280 280 280 281 281 282 282 281 282 282 282 281 281 281 280 280 281 282 283 282 283 282 279
270 270 270 271 271 272 272 273 274 274 274 274 275 275 275 277 278 279 279 278 279 281 279 279 279 277 281 281 279 278 279 280 281 282 281 281 280 281
269 269 270 270 271 271 272 272 273 274 274 274 274 275 275 276 276 277 278 279 278 279 278 278 279 280 280 279 278 276 278 279 278 278 279 279 281 280
268 269 269 270 270 271 271 272 272 273 273 273 274 275 275 275 276 277 277 277 277 277 278 278 278 278 277 277 277 276 275 276 278 279 278 277 279 279

GFSNE_sfc_thetae_012.txt.gz
Theta_e
295 295 294 294 294 293 293 293 289 286 289 294 295 301 300 300 300 300 300 300 298 300 298 299 299 299 298 299 299 301 305 307 305 306 308 308 308 312
295 294 295 295 294 294 293 293 291 289 286 291 292 295 296 296 298 298 298 299 297 298 298 298 298 297 297 297 297 298 299 303 304 304 304 306 307 308
293 293 292 293 293 293 293 292 291 290 288 290 293 294 295 295 296 297 297 298 298 297 297 297 297 296 296 296 297 297 298 298 300 302 303 304 305 306
291 291 290 290 291 292 291 291 291 292 290 288 291 291 293 295 295 295 295 296 297 296 297 296 295 295 295 294 294 296 296 297 297 297 299 301 301 302
291 290 290 290 289 290 290 289 289 289 289 288 288 291 291 292 292 293 294 295 295 295 294 294 294 295 294 294 295 295 295 296 295 295 295 296 297 298
290 290 289 289 288 288 287 287 287 287 288 287 287 287 289 290 291 289 290 292 292 293 293 291 292 293 294 294 294 294 294 294 295 295 294 293 294 295
289 288 289 288 286 286 285 285 286 286 286 286 286 287 287 287 287 289 287 289 291 292 292 293 294 294 294 292 292 293 292 293 294 295 294 294 294 294
287 287 287 287 286 286 284 284 284 284 283 283 283 282 284 285 286 286 285 284 283 291 290 290 292 291 293 294 292 292 293 293 294 294 294 293 293 293
286 286 285 285 286 285 285 284 284 283 282 283 281 282 283 284 285 284 285 284 284 287 289 287 290 289 292 291 291 292 292 292 293 293 293 292 291 291
285 285 285 285 285 284 283 282 283 285 285 285 284 284 284 285 285 286 286 286 287 287 288 283 288 288 290 291 291 292 292 292 292 292 291 291 290 290
283 283 283 283 283 283 283 282 283 284 285 286 286 285 285 285 286 285 284 283 283 284 287 285 286 287 289 290 293 290 290 290 290 291 291 291 290 290
282 283 283 284 283 283 283 283 281 282 283 284 284 285 286 286 285 286 286 283 282 283 286 285 285 285 284 290 291 292 294 289 289 290 291 291 291 293
280 282 284 283 281 281 280 281 280 282 281 282 282 283 284 286 286 288 287 286 283 283 287 286 286 285 285 285 289 291 291 292 292 292 290 290 289 290
280 282 284 280 280 279 279 279 279 280 281 282 283 282 283 284 285 287 287 288 288 286 288 287 286 285 285 284 285 289 291 292 290 290 293 292 288 288
282 281 280 279 279 279 279 278 279 281 281 280 281 282 285 286 287 287 287 287 288 288 288 288 287 286 286 285 285 287 288 290 289 288 289 292 292 294
280 282 280 279 279 280 280 280 281 281 280 280 281 283 285 286 285 286 285 286 284 285 288 288 287 286 285 285 285 286 288 286 289 289 289 290 291 292
279 280 278 277 278 279 279 279 280 280 280 280 281 281 283 285 285 286 285 285 284 284 285 286 288 286 287 286 284 287 287 287 289 290 288 288 290 292
278 276 275 275 276 277 277 278 278 278 279 280 281 281 281 283 284 284 284 284 284 285 284 286 286 285 284 285 285 285 285 287 288 289 289 285 287 291
275 274 274 274 275 276 276 276 276 278 279 279 279 280 280 282 284 284 283 284 284 284 285 287 286 284 282 281 283 280 283 285 288 287 287 285 285 289
273 273 273 274 274 275 275 275 276 277 277 278 278 279 279 280 281 282 283 283 284 285 283 283 283 284 282 282 283 281 281 282 284 284 285 286 283 279
272 272 273 273 274 275 275 275 276 276 277 277 278 278 278 279 280 280 281 281 281 283 281 281 281 279 284 285 281 280 281 280 281 283 285 283 283 283
272 272 273 273 273 274 275 275 276 276 276 276 277 278 278 279 279 279 279 279 280 280 280 281 282 282 282 280 281 278 280 280 280 279 279 279 281 281
272 272 273 273 273 273 274 274 275 275 275 275 276 277 279 277 279 279 279 280 279 279 279 279 281 282 280 280 280 280 277 278 280 281 280 278 280 279

GFSNE_sfc_thetae_015.txt.gz
Theta_e
297 296 295 295 295 294 294 292 289 286 288 292 293 299 302 302 302 303 301 301 300 299 300 300 301 302 301 300 300 299 301 305 307 306 305 307 308 309
297 296 295 295 295 295 294 293 292 289 285 290 292 295 296 296 299 299 299 299 299 298 298 299 299 300 300 299 298 297 298 298 301 304 304 304 305 306
294 293 293 293 292 293 293 293 292 291 287 290 293 295 296 297 296 298 298 299 299 297 296 297 297 298 298 297 297 298 298 298 298 298 300 303 304 305
293 293 292 291 291 292 291 291 291 292 290 288 291 292 293 295 296 296 295 295 297 297 296 296 297 296 296 295 295 295 296 296 297 297 297 298 299 302
291 290 290 290 289 290 290 290 289 289 290 288 288 291 292 293 293 294 295 296 295 296 296 295 296 296 295 295 295 295 295 295 295 295 295 295 295 297
290 290 290 289 289 289 288 288 288 287 287 287 288 288 290 291 292 291 291 294 293 293 294 292 294 295 295 294 294 294 294 294 294 294 293 293 293 294
288 289 290 290 288 287 286 285 285 285 285 286 286 287 288 289 288 290 289 291 292 294 293 294 296 296 295 293 293 293 293 293 293 293 292 293 293 293
286 287 288 288 288 288 287 286 285 283 282 283 284 284 284 286 288 287 287 286 284 292 290 290 293 292 294 295 293 292 293 292 293 292 292 294 293 293
286 286 286 287 287 286 286 286 285 285 283 283 281 282 283 285 285 285 285 285 285 288 289 287 292 290 293 292 292 292 291 292 293 293 293 292 292 292
285 285 285 285 286 285 284 284 284 285 285 285 285 285 286 286 286 286 285 285 287 288 289 284 290 289 291 293 291 291 291 291 292 292 292 291 291 291
283 284 284 283 284 284 283 282 283 284 286 286 286 286 286 286 286 285 283 283 282 284 287 286 287 287 289 290 292 291 291 290 291 291 291 291 291 290
282 282 283 284 284 284 283 283 281 282 282 283 284 285 285 286 285 286 285 281 282 282 286 285 286 286 284 290 291 292 292 290 290 290 290 290 291 292
281 282 284 282 281 281 281 281 280 282 281 281 282 283 284 285 286 288 288 286 283 283 286 286 285 286 286 286 289 291 292 292 293 292 290 290 291 291
280 282 283 281 281 280 280 280 280 280 281 281 282 283 284 285 286 287 288 289 289 287 288 288 285 286 285 285 284 289 290 292 292 292 291 292 290 290
282 281 281 281 280 280 281 280 280 281 282 281 281 282 284 286 287 287 288 288 288 288 288 288 287 287 286 284 284 286 287 289 290 289 291 289 288 290
279 280 281 280 280 281 282 282 282 282 281 281 282 283 285 285 286 287 286 286 285 285 287 288 288 287 285 285 285 285 287 286 290 289 288 288 287 291
277 280 279 278 277 279 280 280 281 281 280 281 281 282 283 284 285 287 285 285 284 284 285 287 288 287 287 286 284 286 286 287 289 289 288 288 289 290
278 276 276 276 276 277 277 278 279 279 279 280 281 281 281 282 284 286 285 284 283 285 285 286 286 284 284 285 286 284 285 286 288 288 289 287 286 291
275 275 275 274 275 276 276 277 277 279 279 279 280 280 280 281 282 283 284 285 284 285 286 287 286 284 282 280 281 282 283 284 286 286 288 288 285 287
275 274 274 274 275 275 275 276 277 278 278 279 279 280 279 280 281 281 282 282 282 284 284 285 284 282 281 280 281 279 281 281 282 284 284 287 285 281
273 274 274 274 274 275 276 276 277 277 277 278 278 278 279 280 280 280 280 281 282 282 281 281 281 281 283 285 282 281 280 280 281 281 282 284 283 283
273 273 274 274 274 274 275 276 276 277 276 276 277 279 280 280 279 279 280 279 280 280 280 282 282 282 282 280 280 280 281 281 280 280 280 279 279 279
273 273 274 274 274 274 274 274 274 275 276 275 276 277 279 278 279 280 280 280 279 279 280 280 281 281 280 279 279 280 278 279 280 281 281 279 280 280

GFSNE_sfc_thetae_018.txt.gz
Theta_e
295 295 294 293 293 292 291 291 287 283 284 289 292 297 297 299 300 300 300 300 298 298 299 299 301 303 304 304 305 306 306 307 307 307 306 306 308 308
295 294 294 294 294 293 293 293 291 288 284 289 290 291 294 296 297 298 298 300 298 298 297 298 298 300 302 301 301 300 300 299 301 304 305 305 305 305
293 293 292 292 291 291 291 291 291 290 287 288 291 291 292 292 293 294 295 295 294 297 296 296 297 297 299 298 298 298 298 299 298 298 298 300 303 305
291 291 291 292 290 289 289 288 287 287 286 284 286 287 288 290 290 291 293 294 292 296 296 296 296 296 297 296 296 295 295 296 296 297 297 297 297 298
287 287 287 288 286 287 287 286 286 287 286 284 283 285 286 287 287 288 289 290 293 296 295 295 296 296 296 296 295 295 295 295 294 294 294 295 296 296
285 285 286 286 285 285 285 284 285 283 283 282 282 283 284 286 286 285 285 287 287 292 293 292 294 296 296 295 295 295 295 295 294 294 293 292 292 293
283 284 285 287 289 287 285 282 282 280 281 281 280 282 282 282 282 285 284 285 287 289 288 287 288 290 292 294 294 295 294 294 294 294 293 292 292 292
281 282 284 287 287 288 288 288 285 280 279 279 279 278 279 281 282 281 280 280 279 286 284 282 286 286 288 290 293 292 292 292 293 293 293 292 292 291
281 281 282 285 285 285 284 285 285 285 283 281 279 279 279 280 281 280 280 279 279 282 283 281 280 282 286 290 292 292 291 291 291 291 292 292 291 291
280 280 280 281 282 283 282 281 282 282 283 284 283 282 283 283 283 284 283 283 282 282 283 280 279 283 281 284 291 292 292 291 291 291 292 291 291 290
280 280 281 280 283 284 282 280 281 282 285 286 286 286 286 286 286 283 280 279 277 279 282 281 280 281 282 284 284 291 291 291 291 291 291 292 291 290
279 280 282 282 282 281 280 280 279 279 280 280 281 282 283 283 285 284 282 279 278 277 281 281 281 281 280 283 285 284 282 289 290 290 291 291 291 289
278 278 280 282 282 282 281 279 278 280 280 279 279 280 281 282 283 284 284 283 280 279 283 283 280 278 282 280 279 283 285 285 286 287 290 290 290 289
277 279 280 281 281 281 280 281 281 280 278 278 278 279 281 282 284 285 286 286 286 284 285 285 283 280 279 279 281 283 283 283 282 283 284 288 290 290
278 278 280 281 280 280 281 282 281 279 279 279 279 280 281 283 284 283 284 285 285 285 287 285 285 284 283 282 279 278 279 284 287 287 279 279 280 283
277 277 279 279 278 279 280 281 280 280 279 279 279 281 282 282 281 283 284 282 281 280 284 285 284 284 282 281 279 278 280 280 283 287 284 284 286 286
276 278 277 276 275 276 277 278 279 279 278 278 279 280 280 281 280 283 281 279 280 279 279 281 284 284 282 282 278 278 279 281 282 286 285 284 284 285
276 274 273 273 274 275 275 275 276 277 277 278 278 278 278 279 279 282 282 279 277 279 280 282 284 282 280 281 284 280 278 279 280 281 285 284 281 281
273 273 273 273 273 274 274 275 275 276 277 277 277 277 277 278 280 280 280 280 281 280 283 282 284 282 280 278 279 283 281 281 280 279 280 284 284 281
273 272 272 273 273 273 273 274 274 276 275 275 276 276 276 277 278 278 278 279 279 280 280 278 277 278 277 275 278 275 281 279 279 279 280 281 281 282
272 272 272 272 272 273 273 273 274 274 274 274 274 275 277 277 276 278 278 276 277 278 276 276 275 277 278 278 277 276 277 280 278 276 277 278 280 280
270 271 272 272 272 272 272 272 272 273 273 273 272 274 276 277 277 277 277 277 277 277 278 278 280 280 279 277 276 273 273 270 278 280 280 279 275 275
268 270 271 271 271 271 271 271 271 270 270 271 271 272 274 274 276 277 276 277 276 273 274 277 278 279 278 277 274 277 270 273 274 277 274 280 280 280

GFSNE_sfc_thetae_021.txt.gz
Theta_e
291 294 294 294 293 293 293 291 287 282 281 285 286 293 293 294 297 297 298 298 299 299 298 299 300 301 302 303 304 305 309 311 309 308 306 306 307 308
291 291 290 293 292 293 293 292 291 287 283 287 289 290 293 295 296 296 296 296 297 298 297 297 298 299 300 301 301 301 300 301 303 305 306 306 306 305
289 289 289 291 290 291 291 290 289 289 286 287 289 289 289 291 292 295 296 295 296 296 296 296 296 297 298 299 299 298 299 299 298 298 298 299 300 303
284 284 284 287 285 286 287 286 286 286 284 282 283 284 285 288 288 287 291 293 293 296 297 296 296 296 296 296 297 297 296 296 296 296 296 295 296 298
283 283 283 283 282 283 284 283 283 285 282 280 279 282 283 285 286 286 286 287 290 295 294 295 295 296 296 296 297 296 296 295 294 294 294 295 295 295
283 282 282 282 282 282 283 282 283 281 280 279 279 280 280 283 283 282 282 284 285 290 292 290 293 295 296 296 295 296 295 295 294 293 293 292 292 293
281 282 282 283 286 286 285 283 281 279 278 278 278 278 278 278 278 280 279 280 282 285 284 285 286 287 289 292 295 295 295 295 294 294 293 292 292 292
278 279 280 283 283 284 285 285 285 281 278 277 277 276 277 278 278 278 278 277 277 283 282 281 284 283 286 288 292 293 292 292 292 292 293 293 292 291
278 278 279 281 281 281 283 284 284 285 283 281 279 278 278 278 279 278 277 277 277 280 281 277 277 280 283 288 291 292 292 292 291 291 291 291 291 290
278 278 278 279 280 281 280 280 280 281 281 282 281 281 281 282 281 282 281 283 281 281 281 277 275 278 280 282 289 292 292 292 291 291 291 290 290 290
280 280 279 279 281 283 280 278 279 281 284 285 286 285 285 286 286 283 281 280 278 278 279 278 278 275 277 279 282 289 290 291 291 291 291 291 290 290
277 278 280 280 282 282 280 276 276 277 279 279 279 280 282 282 283 282 281 278 278 277 279 278 278 277 274 277 282 283 280 288 290 290 291 291 291 288
276 276 278 280 280 282 281 279 278 279 280 279 278 278 279 280 282 283 283 282 280 279 282 282 276 276 277 277 276 278 281 283 283 285 290 291 291 290
275 277 278 280 281 280 280 281 282 280 279 277 277 278 278 280 283 285 285 284 284 283 285 284 281 281 279 276 277 280 279 280 281 280 281 286 289 290
277 278 279 279 279 279 280 281 280 280 279 278 278 279 280 282 283 283 283 284 285 286 286 285 284 283 283 280 278 278 280 280 276 282 286 285 281 283
276 277 278 278 277 277 278 278 278 278 277 277 277 279 281 280 279 280 282 282 277 277 283 284 284 284 282 282 282 281 279 276 278 285 286 284 280 282
276 275 275 274 274 275 276 276 276 277 276 277 277 278 278 279 279 281 282 278 276 275 277 280 283 283 283 283 280 280 279 277 278 279 283 284 285 283
274 272 272 272 272 273 273 274 275 276 276 276 276 277 277 277 278 279 280 278 277 276 276 280 280 282 282 281 284 282 278 276 276 277 283 283 282 282
272 271 271 271 271 272 272 273 273 275 276 275 275 275 276 277 278 276 277 276 278 280 279 277 277 278 279 277 276 282 280 280 277 275 276 280 282 285
269 271 271 271 271 271 271 272 272 273 273 273 273 273 275 276 274 275 276 274 277 278 277 276 274 274 274 273 271 269 281 272 272 274 276 276 279 283
266 269 270 271 271 271 270 270 270 270 270 270 271 272 273 275 274 273 273 273 274 277 275 274 274 276 277 274 273 270 269 280 275 271 272 270 275 279
262 266 270 270 269 269 269 269 269 268 268 268 268 269 271 273 273 274 274 274 270 270 272 274 278 280 277 275 272 271 271 267 275 280 280 277 272 273
260 263 264 266 268 268 269 268 267 265 266 266 266 267 268 270 271 273 272 271 273 270 270 274 277 277 276 275 272 274 267 268 270 272 271 279 280 280

GFSNE_sfc_thetae_024.txt.gz
Theta_e
289 290 290 291 290 292 291 290 286 282 283 284 284 289 290 292 295 294 295 296 295 295 296 299 300 302 302 302 302 303 305 307 313 313 310 309 308 308
289 287 287 288 288 288 288 289 289 286 283 287 287 288 290 291 294 295 295 295 295 295 295 296 298 300 300 300 301 301 300 302 303 306 307 307 306 305
283 283 283 284 283 283 284 285 287 288 284 284 286 286 285 285 287 290 295 295 295 295 295 296 296 297 298 298 299 299 299 300 299 299 299 300 301 302
283 282 282 283 281 281 281 282 283 284 282 279 281 282 283 284 284 284 288 290 293 295 296 296 296 296 296 296 297 297 297 297 297 297 296 296 295 295
281 281 281 281 280 280 280 281 282 284 281 280 279 281 281 283 283 284 284 285 289 292 293 294 295 296 296 296 296 297 296 296 295 294 294 295 295 296
281 281 280 280 279 279 281 281 282 280 280 279 278 278 279 281 281 280 279 282 283 286 290 290 291 293 295 295 295 296 296 296 294 293 293 292 292 293
280 280 280 281 283 282 282 281 280 279 279 278 277 277 277 277 278 279 278 278 280 283 284 284 285 286 288 290 293 295 295 295 294 294 293 292 291 292
278 279 279 281 280 282 282 283 283 280 279 279 279 277 276 277 277 277 276 276 275 281 281 280 283 283 285 286 291 292 293 293 294 294 294 293 292 292
278 278 279 280 280 279 281 282 282 283 282 281 279 278 278 278 278 277 276 276 276 279 279 277 276 279 282 286 289 291 292 292 292 291 291 291 291 290
279 278 278 277 279 279 279 280 280 280 281 281 280 280 280 280 279 280 279 279 281 281 280 277 274 275 279 280 287 289 291 291 292 291 291 290 290 289
278 278 278 277 279 282 280 279 278 279 282 283 283 284 284 285 285 283 280 280 275 278 278 276 277 275 275 278 280 287 289 290 291 291 291 291 290 290
277 277 278 279 280 280 279 277 277 277 278 278 278 280 280 280 282 280 279 276 276 275 278 277 277 275 272 276 280 279 280 287 289 290 291 291 291 288
275 276 277 279 281 281 281 279 278 280 279 280 278 278 279 280 280 281 281 279 277 277 280 279 275 275 276 275 275 276 277 278 278 282 289 290 291 290
275 276 277 279 280 280 280 280 280 280 279 278 278 277 278 279 281 282 283 284 283 282 283 283 280 278 276 273 275 277 276 276 276 279 279 284 287 289
277 278 278 278 278 278 279 279 278 278 277 276 277 278 280 281 283 282 283 282 284 285 285 285 283 281 281 279 278 277 277 279 277 276 279 284 285 283
276 276 276 277 276 277 277 277 277 277 276 276 277 278 280 279 279 281 279 283 281 278 282 285 285 284 282 282 281 276 279 278 278 281 278 280 284 284
270 272 273 273 273 274 274 275 275 276 275 275 276 276 278 278 278 279 280 279 277 278 277 278 282 284 283 283 278 277 276 277 277 276 282 283 284 285
269 267 270 270 270 271 271 272 273 274 274 274 274 275 275 276 278 278 277 276 276 277 279 281 281 281 281 279 283 279 280 279 276 282 281 281 281 279
264 264 267 269 270 271 271 271 270 272 273 273 273 273 273 276 276 275 275 275 276 277 275 274 276 275 278 276 274 281 279 280 277 277 278 277 280 282
265 263 266 269 269 270 270 269 270 269 269 269 270 271 271 274 274 274 274 273 275 276 275 275 272 274 273 271 271 269 280 269 268 268 270 271 276 282
264 265 262 267 268 269 267 267 266 266 266 265 267 268 269 271 272 273 273 270 270 273 272 271 273 275 275 272 270 267 269 279 274 269 269 272 270 276
261 263 263 264 263 265 265 265 266 265 265 265 264 265 266 269 270 271 270 270 269 267 270 272 276 278 274 274 270 268 270 266 273 279 280 277 270 269
259 261 260 259 261 263 267 264 264 260 263 264 264 264 265 266 269 269 267 267 268 268 270 272 273 274 274 275 270 272 267 266 269 271 269 278 280 280

GFSNE_sfc_thetae_030.txt.gz
Theta_e
286 286 285 285 284 284 284 284 282 277 278 282 284 290 291 292 290 290 291 293 296 294 294 295 296 297 298 300 300 301 304 308 310 314 315 316 315 313
286 283 282 282 282 282 281 282 282 280 277 282 283 286 289 290 289 288 288 291 291 294 293 293 293 294 296 297 298 299 299 305 309 312 313 314 312 311
282 282 282 282 281 281 280 280 280 280 277 280 283 285 285 285 286 286 287 287 289 290 293 293 292 292 293 295 295 296 298 301 306 308 311 311 310 309
281 281 281 282 280 279 279 279 279 280 279 278 281 282 282 284 284 283 285 287 286 289 290 291 294 293 292 293 295 295 296 298 301 303 306 307 308 308
281 280 280 280 278 278 278 278 279 280 281 280 280 282 282 282 282 282 283 284 285 287 287 289 290 293 294 294 293 295 295 296 297 297 298 298 300 302
281 281 280 280 279 278 279 279 278 278 278 278 279 280 280 281 281 280 280 282 281 284 285 286 289 290 292 295 294 295 295 295 295 294 294 293 294 296
280 281 281 282 283 282 280 279 278 277 278 278 277 278 279 279 278 280 279 279 280 281 282 283 286 286 288 288 290 293 295 295 295 295 293 292 292 293
278 279 279 280 280 281 280 281 280 278 277 277 277 277 278 279 280 279 278 277 277 281 281 281 283 283 286 287 288 289 290 292 294 295 294 292 292 292
277 276 277 278 278 278 279 280 280 281 281 279 278 278 278 280 280 278 278 277 277 280 280 279 280 282 284 285 286 288 289 290 291 293 293 292 291 291
277 276 276 277 278 279 279 280 280 280 280 280 280 280 280 281 281 281 280 279 280 281 281 278 280 281 282 283 285 287 288 289 290 291 292 291 291 290
277 277 277 277 279 282 279 278 278 279 282 283 283 283 283 283 282 282 279 278 277 278 280 280 279 279 280 281 283 286 287 288 289 290 291 291 290 290
276 277 278 278 280 280 279 277 276 278 278 279 281 281 281 281 281 280 279 277 278 275 279 278 279 278 276 278 280 281 284 287 288 289 290 291 291 291
275 275 277 278 279 279 279 277 278 278 278 278 279 280 281 281 281 280 280 278 277 277 280 280 278 277 278 278 280 281 281 282 284 286 289 290 290 290
274 275 275 278 278 278 277 278 278 277 276 276 276 277 278 279 281 282 282 281 281 280 282 282 280 279 278 277 278 281 282 281 282 283 283 285 289 290
274 275 276 276 276 275 276 277 275 275 274 274 274 275 277 279 281 281 283 284 283 283 283 284 281 281 281 279 279 279 280 281 280 282 282 284 285 286
271 270 270 273 270 271 273 274 273 273 273 273 273 275 277 278 279 281 280 282 281 282 283 285 284 283 281 281 281 280 281 281 281 281 282 283 284 285
265 264 266 267 268 270 270 271 272 271 271 271 272 272 274 275 277 279 279 279 278 279 280 282 284 285 284 283 281 281 280 281 282 282 281 282 283 285
267 261 258 257 261 267 268 268 269 268 269 270 270 271 271 272 274 277 277 277 277 278 278 279 281 282 282 281 283 281 281 281 282 283 282 281 282 284
263 261 256 256 259 266 267 267 267 267 268 267 268 268 269 271 273 274 275 274 275 276 277 277 278 280 279 277 278 281 280 281 281 282 282 282 281 282
264 262 259 259 262 265 266 266 266 266 265 265 265 265 266 268 270 271 271 271 272 274 275 276 276 276 276 276 276 278 278 276 276 275 276 276 277 279
264 265 261 263 263 264 259 258 256 261 263 262 263 264 263 265 268 269 269 267 268 272 271 272 274 275 276 275 274 275 276 278 276 276 275 275 276 277
263 264 265 264 262 261 257 254 258 257 260 263 263 262 263 264 265 266 267 267 269 269 270 272 275 276 276 276 274 270 275 275 275 278 279 278 277 275
263 264 263 260 260 259 262 259 258 255 258 261 262 264 263 263 265 266 266 267 268 267 268 270 272 274 274 275 273 272 274 274 274 276 277 278 280 280

GFSNE_sfc_thetae_033.txt.gz
Theta_e
295 295 294 293 292 291 290 288 285 280 282 286 286 290 291 293 294 294 296 294 293 293 295 295 295 296 297 299 299 301 301 302 308 311 316 317 318 318
293 292 291 290 289 290 289 288 286 283 280 284 285 287 289 289 291 292 293 292 292 292 292 295 294 294 295 296 297 298 299 300 301 306 313 315 316 315
290 289 288 289 288 288 287 286 284 284 280 282 285 286 287 287 289 291 292 293 292 291 292 292 293 293 293 294 295 296 296 298 299 302 309 314 314 314
287 287 287 287 286 286 285 284 284 284 282 279 282 284 285 286 288 289 289 291 291 291 289 289 289 291 293 293 293 294 295 296 297 300 301 310 311 312
287 286 286 286 285 285 284 283 283 282 282 280 280 283 283 284 285 287 288 289 289 289 289 289 288 289 292 294 293 293 294 295 295 297 298 298 304 307
286 286 285 284 283 283 282 282 282 281 280 279 279 280 281 283 284 283 284 287 287 288 288 287 287 289 289 291 294 293 293 294 294 294 295 294 294 297
284 283 282 282 282 282 281 281 280 279 278 279 279 279 279 280 280 282 282 283 286 288 287 288 289 290 292 291 291 293 294 294 294 294 293 293 293 294
281 281 281 280 281 280 280 281 281 279 279 279 279 279 279 280 282 281 281 280 279 287 286 286 289 288 289 291 288 288 290 294 294 294 294 293 292 292
280 280 279 280 280 280 280 281 282 282 281 281 279 280 279 281 281 281 281 281 280 283 284 283 287 286 289 288 287 287 289 290 292 293 293 293 292 291
280 280 280 279 280 280 281 281 281 281 281 282 283 282 283 283 283 282 282 283 284 283 284 279 285 285 288 289 286 286 287 288 289 291 293 292 291 291
280 280 280 279 279 281 280 279 279 279 282 282 282 283 283 283 283 283 280 280 280 281 284 282 283 284 286 287 289 286 287 287 288 290 291 292 291 291
280 280 278 278 279 279 279 278 277 278 279 280 281 282 283 284 283 283 282 279 279 280 284 282 282 283 282 287 287 289 289 287 288 289 290 291 291 294
278 278 278 278 278 278 278 279 278 278 278 279 279 281 282 282 283 285 284 282 280 280 284 283 281 283 282 284 287 289 289 289 289 290 288 290 290 292
277 278 278 277 277 276 277 277 277 277 278 278 278 278 279 280 282 283 284 285 285 283 285 284 282 282 281 282 282 288 288 289 289 289 290 289 289 290
278 276 276 275 275 276 275 275 275 276 276 276 276 277 278 280 282 284 285 285 285 285 285 285 284 284 284 282 283 285 286 287 289 289 289 290 290 291
276 276 274 274 273 274 275 275 275 274 274 274 275 277 279 280 281 282 282 283 284 284 286 285 285 285 283 284 284 283 285 285 288 287 288 289 290 291
274 275 274 274 273 274 274 274 273 272 273 274 274 275 276 278 279 281 281 282 281 282 283 285 286 286 286 285 283 284 285 285 287 287 287 286 288 289
275 274 272 272 272 272 273 272 273 271 271 273 274 274 274 276 277 279 280 280 280 280 281 282 285 284 284 283 284 285 285 285 286 286 286 284 286 289
275 274 273 272 272 272 272 272 271 271 270 271 272 272 273 275 276 277 277 278 278 279 280 282 282 283 281 281 283 282 285 284 284 284 284 284 284 286
275 274 274 274 273 272 272 271 271 271 271 269 271 271 271 273 274 274 276 275 276 277 278 280 280 280 280 279 281 282 279 283 284 284 283 285 285 280
276 275 275 274 274 273 272 271 270 270 269 269 270 270 270 271 273 273 274 273 273 275 275 277 279 278 281 281 280 282 282 279 281 283 283 283 283 283
278 276 276 275 274 274 273 272 272 271 270 270 270 270 270 271 271 272 273 273 273 274 274 277 279 280 281 280 279 279 281 283 280 278 280 280 282 281
278 278 277 276 275 274 273 273 271 271 270 269 269 270 270 270 270 272 272 272 272 272 273 275 277 279 279 279 278 280 278 280 282 282 282 278 279 280

GFSNE_sfc_thetae_036.txt.gz
Theta_e
296 295 293 293 293 292 291 290 286 283 284 288 288 292 292 292 293 293 293 293 294 293 293 292 293 295 295 296 297 299 301 302 302 306 309 313 318 319
295 293 293 292 291 291 290 290 289 286 284 287 288 290 291 290 291 292 292 293 292 293 293 292 292 294 295 295 296 297 298 300 301 302 304 308 311 317
293 292 292 292 291 291 290 289 288 287 284 286 288 289 289 288 289 291 291 292 293 294 292 291 291 291 292 294 294 295 297 297 298 300 301 304 307 315
292 292 291 290 290 290 289 288 287 287 284 282 285 285 286 287 287 287 288 289 291 292 290 289 289 290 291 292 294 294 295 295 296 297 298 300 303 309
291 290 290 289 288 288 287 286 285 284 285 283 282 284 284 286 286 287 287 289 290 292 291 290 290 289 289 291 292 294 294 295 295 295 297 296 297 301
290 289 288 286 286 285 284 284 283 283 283 282 282 281 283 285 285 284 284 286 287 290 291 289 289 290 289 290 291 294 294 294 294 294 294 294 293 295
288 286 286 284 282 282 282 283 282 281 281 280 280 281 281 282 282 284 283 284 285 287 288 289 290 291 292 291 291 291 291 293 293 294 294 294 293 293
285 285 285 284 284 282 282 281 282 281 280 280 281 280 281 282 283 283 283 282 281 288 286 287 290 288 289 291 287 288 289 290 293 294 292 292 293 292
284 284 283 283 283 282 281 282 283 283 282 282 280 281 282 283 283 282 282 282 282 285 285 283 288 287 289 290 288 287 288 289 290 292 293 290 290 290
284 284 284 283 282 281 281 281 281 283 283 282 282 283 283 284 284 284 284 284 284 285 286 281 285 286 289 290 288 286 287 288 288 290 292 292 291 290
284 284 283 282 280 280 279 279 280 281 283 282 282 282 283 283 284 284 282 281 281 282 286 284 285 284 287 289 291 288 287 287 288 288 290 292 292 291
284 283 281 280 278 279 279 279 278 279 279 280 281 283 284 284 284 285 283 281 280 281 285 283 284 285 283 288 289 291 291 287 287 288 289 291 292 295
282 282 282 279 278 278 277 279 278 278 279 279 280 281 283 284 284 285 286 284 282 282 285 285 284 283 284 284 288 289 291 291 291 290 288 289 291 292
281 282 281 277 277 277 277 276 277 278 280 279 279 280 281 281 283 285 286 286 286 285 287 287 284 283 283 283 283 288 289 290 292 291 292 290 289 289
282 280 277 276 276 277 276 276 277 278 278 277 277 278 280 281 283 285 286 287 287 287 286 287 285 285 285 284 285 286 287 288 290 290 291 291 291 291
281 281 278 276 277 277 278 278 278 277 276 276 277 279 280 281 282 283 283 285 285 286 287 286 286 286 284 285 285 285 287 286 289 289 290 291 292 293
278 280 280 279 278 278 278 278 278 277 276 277 277 278 278 279 280 282 282 283 283 283 284 287 286 286 287 287 285 286 286 287 289 288 287 286 288 290
279 279 279 279 277 277 277 277 277 276 275 275 276 277 276 277 278 280 281 281 281 282 283 284 287 284 285 285 284 286 286 287 288 287 288 287 286 289
279 280 279 279 278 277 277 277 276 276 275 275 275 276 276 276 277 278 278 279 279 280 282 284 284 283 282 281 284 282 286 286 287 286 287 285 286 288
279 279 279 279 279 278 277 277 276 276 276 275 275 275 275 275 276 276 277 276 277 279 280 281 281 281 280 280 282 283 281 285 286 286 285 287 286 280
280 280 281 280 279 279 278 277 276 276 274 274 275 274 275 274 275 276 276 276 276 277 277 278 280 280 283 284 282 282 283 280 282 284 284 286 285 285
281 281 281 281 280 279 279 278 277 276 276 275 275 275 275 275 274 274 275 276 276 276 277 279 280 281 282 281 281 280 282 283 280 280 281 280 282 282
282 281 282 281 280 280 278 278 277 276 276 275 274 275 274 274 275 275 274 275 275 275 276 277 279 282 281 280 279 281 281 281 283 282 282 279 280 281

GFSNE_sfc_thetae_039.txt.gz
Theta_e
299 297 296 296 295 295 293 291 288 284 285 289 290 293 294 294 294 294 294 293 294 294 293 294 294 294 294 294 295 296 298 299 301 303 304 305 307 316
296 295 294 294 294 294 292 292 291 288 284 288 289 291 292 290 292 293 292 293 292 293 293 293 294 293 292 292 293 295 296 297 298 300 302 303 304 307
295 294 293 293 292 292 292 291 290 289 285 288 289 290 289 289 289 291 291 291 291 292 292 293 293 292 291 291 291 292 294 295 296 298 299 301 303 304
292 292 291 291 291 290 290 288 289 288 287 283 286 286 286 287 288 288 288 288 290 290 291 292 291 291 291 291 291 291 293 294 295 296 296 298 300 301
291 290 290 289 288 288 287 287 286 286 286 284 283 285 286 287 286 287 287 288 288 290 291 291 291 292 291 291 290 291 292 294 294 295 295 296 296 297
291 290 289 287 287 285 284 284 284 283 283 282 282 282 283 285 285 284 284 287 286 287 289 290 291 291 291 291 291 291 292 295 294 294 294 294 293 294
289 288 288 286 284 283 283 282 282 281 280 280 280 281 282 282 282 284 283 284 285 287 287 288 289 291 291 292 290 290 289 291 294 294 293 294 293 293
287 287 287 287 286 284 284 282 282 280 280 281 281 280 280 281 283 283 283 282 280 288 286 286 289 289 290 292 290 288 288 289 291 292 293 292 292 292
287 286 285 285 285 284 283 283 282 283 282 282 280 281 281 282 282 281 282 282 282 285 285 283 288 287 289 289 289 288 287 288 288 290 292 290 289 289
287 286 285 285 284 281 280 280 281 282 282 283 283 282 282 282 283 283 283 283 284 285 286 281 286 286 289 290 290 289 288 288 288 289 289 290 289 288
286 286 285 283 281 280 279 279 279 280 283 283 282 283 283 284 284 283 282 281 280 282 286 283 285 285 287 288 290 290 289 288 288 289 289 291 291 290
285 285 283 280 279 279 278 278 277 279 279 279 281 282 284 284 284 284 284 281 281 280 284 283 283 284 282 288 289 291 290 288 287 288 288 289 292 291
283 283 284 280 279 278 278 278 278 278 278 280 280 281 282 283 284 285 285 284 282 282 286 284 283 283 283 284 287 289 291 292 291 289 288 289 290 292
282 283 283 280 278 278 278 278 277 278 280 280 279 279 280 281 282 284 286 286 287 285 287 287 284 283 283 282 283 288 290 291 292 291 292 290 288 289
283 282 280 279 279 279 279 278 278 279 278 277 277 278 280 282 283 284 286 287 287 288 287 287 286 285 284 283 283 286 286 288 291 291 292 292 291 292
283 283 281 280 279 279 280 281 280 280 277 277 277 279 280 281 281 283 282 284 284 284 287 287 286 286 283 285 285 285 287 285 289 290 291 292 293 293
280 281 281 281 280 280 280 280 280 280 278 277 277 277 278 278 279 282 282 282 281 282 283 287 287 286 286 285 283 285 286 287 288 288 288 287 290 292
280 280 281 281 280 279 279 279 280 279 278 277 277 277 276 277 277 279 280 280 279 280 282 284 284 284 284 284 282 284 287 286 288 288 288 286 286 289
278 280 281 281 280 280 280 279 278 279 278 278 277 277 276 276 277 278 278 278 278 279 281 283 283 281 279 280 283 283 284 286 286 286 287 287 286 284
280 280 280 281 281 280 280 279 279 278 278 277 277 277 277 276 276 276 277 277 277 278 279 281 281 279 278 278 281 282 282 285 285 285 285 287 284 282
282 281 283 282 281 281 281 280 279 278 277 277 277 276 277 276 276 275 276 276 277 277 276 277 280 281 282 284 281 282 283 282 283 283 285 285 284 284
283 282 283 283 283 282 281 280 279 278 278 277 277 277 277 276 276 275 275 275 276 276 276 278 281 282 282 281 281 281 282 283 282 282 281 281 281 281
284 283 284 284 283 282 280 280 279 278 278 277 276 276 276 275 276 276 276 275 275 275 275 276 279 281 281 280 279 281 281 281 282 281 281 280 281 281

GFSNE_sfc_thetae_042.txt.gz
Theta_e
294 293 292 293 292 290 289 288 284 281 282 285 285 288 289 288 290 289 288 292 293 293 293 294 294 294 294 294 295 295 295 295 297 298 299 302 304 306
293 292 292 291 290 289 288 288 287 285 281 284 285 285 286 288 289 288 288 292 291 292 292 293 293 294 295 294 294 294 293 293 294 296 297 299 302 304
291 290 290 290 289 289 288 287 285 284 281 283 285 285 284 284 286 286 287 286 287 291 292 292 292 292 293 293 293 292 292 292 292 294 296 297 300 302
289 289 289 289 286 285 284 283 283 283 281 279 282 282 282 283 284 284 286 287 286 289 291 291 291 292 292 292 292 292 292 291 292 293 295 296 297 300
289 288 286 285 283 283 281 280 281 283 281 279 279 281 281 282 282 283 284 284 287 289 290 290 291 291 291 291 292 292 292 292 292 293 294 294 295 296
287 286 286 284 282 280 280 279 280 279 279 278 278 279 280 281 282 281 281 282 282 286 288 289 290 290 291 292 292 292 292 291 293 294 293 293 293 294
286 286 285 286 287 284 281 279 278 278 277 277 277 278 279 279 278 280 280 281 282 283 283 284 285 286 288 290 291 292 292 291 292 292 293 293 293 293
283 284 284 286 285 286 285 283 282 277 277 277 278 277 277 279 280 279 279 277 276 282 282 281 284 284 287 289 289 289 288 289 290 291 291 293 292 291
283 282 283 285 282 280 281 281 281 282 281 279 278 279 278 278 278 277 277 277 277 280 281 279 281 281 285 288 289 289 290 289 289 289 289 291 290 290
283 283 282 281 278 279 278 277 278 279 279 280 280 278 278 279 279 279 279 279 280 281 282 277 279 280 282 283 289 290 290 289 289 289 288 290 289 289
283 283 283 280 280 281 277 276 276 277 281 281 281 282 284 284 284 282 279 278 276 279 282 280 280 281 283 282 283 290 290 289 288 289 288 288 290 289
281 282 281 279 279 279 274 274 273 276 276 276 277 280 281 282 284 283 282 279 278 277 281 280 280 282 279 282 284 282 282 288 288 288 289 289 291 290
279 279 280 281 280 280 279 275 275 277 277 276 278 278 280 281 280 281 281 281 280 279 283 283 280 280 279 279 281 284 282 281 282 283 288 289 290 291
279 279 280 281 281 280 278 279 279 278 275 273 275 276 277 278 280 280 282 283 284 284 286 284 281 281 279 278 279 284 282 280 283 281 280 286 289 289
279 281 282 281 282 280 281 280 277 275 273 270 273 274 276 279 281 280 281 282 283 284 286 284 280 281 278 277 280 282 282 283 281 279 280 281 283 284
280 281 279 278 276 276 276 278 277 275 273 272 271 275 276 277 277 279 278 279 280 281 285 284 284 282 279 279 281 281 283 281 283 279 280 281 284 283
276 276 275 278 277 276 276 276 276 276 274 272 271 273 275 275 276 278 279 278 277 278 279 282 285 285 282 281 281 279 282 284 284 282 280 280 281 282
276 273 273 275 276 274 273 274 274 274 274 273 272 273 273 273 274 276 278 277 275 276 277 280 282 281 282 282 282 279 282 284 284 283 281 277 278 279
277 274 275 277 276 276 274 274 272 273 273 273 271 271 272 274 273 274 275 276 275 275 277 279 279 277 276 276 279 283 280 283 282 281 281 282 283 280
279 277 277 278 279 276 275 275 273 272 272 272 269 269 268 270 273 271 273 273 274 275 275 277 277 277 275 276 278 277 283 278 278 281 278 278 281 284
279 279 279 279 280 277 275 275 271 270 269 267 268 269 267 270 269 272 269 272 272 274 273 274 276 279 280 279 277 279 276 283 281 278 279 279 278 278
279 279 279 279 280 280 276 275 273 274 271 271 269 266 268 268 269 268 268 266 272 272 273 275 278 279 280 280 277 274 276 276 281 281 282 280 278 277
281 281 280 280 280 280 277 275 277 275 274 272 270 269 266 266 271 270 268 269 271 270 272 271 275 278 279 278 277 278 275 275 277 277 275 281 282 281

GFSNE_sfc_thetae_045.txt.gz
Theta_e
290 289 289 290 292 290 291 288 285 280 281 283 281 285 285 285 287 286 286 290 292 292 292 292 292 292 293 293 293 295 296 296 296 296 296 297 299 300
289 288 289 289 289 289 287 287 286 284 277 281 281 282 284 286 287 285 285 290 290 291 291 292 292 291 291 292 292 293 294 295 295 295 295 295 297 299
288 288 287 287 285 284 283 282 280 280 277 279 281 281 281 281 283 284 285 285 285 289 290 291 291 292 292 292 292 293 293 294 293 293 293 294 295 298
288 287 286 287 283 281 280 279 278 278 277 276 278 279 279 281 281 281 284 286 285 288 290 290 291 290 291 291 292 292 292 293 293 292 292 292 294 297
286 285 284 283 280 279 279 278 278 280 277 276 276 279 279 279 280 282 282 282 285 288 288 289 289 290 290 290 292 292 292 293 292 292 291 292 294 295
285 284 284 281 280 279 279 277 278 277 277 276 276 277 278 279 279 278 279 281 281 284 285 286 288 289 289 290 290 291 292 292 292 291 291 292 292 293
284 284 283 285 288 283 280 277 277 276 276 275 276 276 277 277 277 280 278 278 278 280 280 281 282 283 285 287 289 290 290 290 291 291 291 291 291 292
281 282 282 285 284 284 283 282 280 276 275 273 275 275 276 278 277 276 276 275 274 279 278 279 281 281 283 285 288 289 290 290 289 290 291 291 291 292
280 281 281 283 281 279 279 280 279 280 279 277 275 276 276 276 276 276 276 276 276 279 278 277 280 279 282 285 288 289 290 290 290 290 289 289 290 290
281 281 280 279 278 278 277 276 276 277 278 278 276 276 276 278 278 279 278 278 279 280 281 277 279 279 281 281 287 288 290 290 290 290 289 288 290 290
282 281 281 278 280 280 277 276 275 276 279 281 280 281 282 283 283 281 278 277 275 277 280 278 277 278 278 280 281 288 289 290 290 289 289 288 289 290
280 280 281 279 280 280 274 273 272 274 276 276 276 277 279 280 282 280 278 276 277 276 280 280 279 278 275 279 282 284 282 285 289 289 289 289 287 289
279 278 279 281 281 281 280 275 273 276 277 276 275 276 277 278 279 279 279 279 278 277 281 282 279 278 279 278 279 281 283 283 281 282 288 288 288 289
279 278 279 283 282 282 280 280 280 278 271 272 272 273 274 275 277 278 279 280 281 281 283 284 282 279 280 278 278 282 284 284 277 278 278 283 288 288
278 279 282 283 282 281 281 282 278 274 271 268 270 271 273 275 277 278 279 279 280 282 284 284 282 281 278 279 279 280 282 283 280 278 276 277 282 285
279 279 277 278 275 276 276 278 276 274 272 270 269 271 273 273 273 276 275 277 277 278 281 283 284 283 278 277 280 280 280 281 285 277 277 277 280 284
278 278 276 273 274 276 276 275 275 274 272 269 269 270 272 273 273 275 276 277 273 275 276 279 282 282 284 282 280 279 279 280 285 281 280 278 279 284
276 271 267 266 270 275 275 273 271 272 272 271 268 270 270 270 272 274 275 274 274 273 275 277 278 278 280 281 283 279 280 282 283 280 279 277 277 282
272 272 268 270 272 276 277 274 272 272 272 270 269 267 268 271 271 272 271 273 273 274 274 277 277 276 274 273 280 283 279 282 282 278 282 282 278 282
279 276 273 273 274 276 278 274 272 270 270 269 266 263 262 266 267 270 271 266 271 273 273 275 274 275 275 274 276 278 283 277 280 280 280 281 282 283
278 278 278 275 276 277 275 274 269 267 265 263 263 264 262 265 265 268 268 267 266 273 271 272 274 277 279 279 275 275 275 282 281 279 280 278 276 280
279 278 278 277 278 279 278 274 271 267 266 264 263 265 260 262 263 264 264 265 268 267 271 272 275 278 278 279 277 273 274 274 280 281 282 281 279 275
280 279 279 278 279 279 277 275 275 273 271 270 268 264 259 263 264 265 263 268 268 267 268 270 272 275 277 277 276 277 274 274 276 276 276 281 282 282

GFSNE_sfc_thetae_048.txt.gz
Theta_e
288 288 287 288 290 290 290 288 287 279 278 280 280 283 283 284 285 285 284 288 290 290 290 290 291 291 291 292 293 293 294 295 296 297 298 298 297 298
288 287 287 287 286 285 284 284 283 281 275 278 278 280 281 283 285 284 283 288 288 289 290 289 290 290 291 291 292 292 292 293 293 295 297 297 296 297
287 286 286 286 284 283 281 281 280 278 275 277 278 279 278 279 281 282 283 283 283 288 288 289 290 290 291 291 290 290 291 292 293 294 295 295 295 295
287 286 285 287 282 281 280 279 278 278 276 275 276 277 277 279 279 279 282 284 283 286 287 287 288 288 289 290 290 290 291 292 292 292 293 294 293 293
285 284 283 283 281 280 279 278 277 279 277 276 276 277 277 278 278 280 280 280 283 285 285 285 286 287 288 289 289 289 290 291 291 292 292 292 292 292
286 285 284 282 280 279 278 277 277 276 276 275 276 276 276 278 278 277 278 279 278 281 282 283 285 286 286 287 288 288 289 290 291 291 291 291 290 292
284 284 284 284 287 284 279 277 277 275 275 275 274 275 276 276 276 278 276 276 277 278 278 279 280 281 282 285 286 287 288 290 290 290 291 291 291 291
281 282 282 284 285 285 284 283 280 276 274 272 274 274 274 276 276 275 275 274 274 278 277 278 280 279 281 282 285 287 288 290 290 289 289 290 290 290
281 281 281 283 282 279 281 280 279 280 278 275 273 273 273 275 275 275 276 276 276 279 278 277 279 278 281 283 286 287 287 289 290 290 290 290 289 289
281 282 280 279 279 278 277 276 277 276 277 277 276 275 275 277 278 279 279 279 278 279 278 276 279 278 281 281 285 287 288 289 290 290 290 289 289 289
283 282 280 279 280 282 278 276 276 276 279 280 280 281 281 281 281 279 276 275 274 276 278 278 277 278 280 281 281 286 288 288 288 290 290 290 289 288
281 280 283 280 281 281 275 274 272 274 275 276 276 277 278 278 280 278 277 275 275 274 277 278 278 280 276 277 278 280 279 285 286 287 290 290 289 286
280 279 279 282 281 281 282 276 274 277 276 276 275 275 276 276 277 277 278 277 276 275 279 280 279 280 280 277 277 279 279 282 284 283 286 289 289 287
279 281 279 282 282 283 281 281 281 279 273 272 272 273 273 274 275 276 277 278 278 278 280 281 280 281 279 278 276 278 282 284 284 278 278 283 287 287
280 280 281 282 282 281 282 282 278 275 272 267 270 271 272 274 276 276 277 277 278 279 281 281 280 280 281 279 278 277 280 281 285 278 276 278 283 285
280 281 278 278 274 275 275 278 277 274 273 271 269 270 272 272 273 274 273 275 276 275 278 279 280 280 278 281 280 279 279 279 281 282 275 277 283 284
278 277 278 275 275 275 276 276 276 275 272 270 269 269 271 272 271 274 274 274 272 273 274 277 280 280 281 282 280 280 280 279 282 280 278 277 282 284
279 275 276 272 273 273 273 274 275 273 273 272 268 270 269 269 270 272 273 271 271 272 273 275 276 276 277 280 281 278 278 281 283 279 281 279 281 284
278 274 273 271 271 273 273 274 274 274 273 272 271 269 267 269 268 270 270 270 271 272 273 274 273 273 272 269 277 283 277 279 280 281 281 280 280 282
280 279 276 274 273 274 274 274 275 271 271 271 269 265 262 265 266 267 269 263 267 271 272 273 272 273 272 271 274 275 282 276 279 280 279 281 282 283
279 279 279 278 275 275 275 274 272 271 270 266 267 265 260 265 264 265 265 265 265 271 270 270 272 276 278 279 272 273 273 281 281 279 280 277 276 280
279 279 279 279 278 276 275 275 271 271 271 269 264 261 259 262 262 262 261 262 267 266 269 270 274 276 277 277 277 271 273 274 279 281 281 281 277 274
280 280 279 279 279 278 277 277 275 274 274 272 269 266 260 262 263 262 262 265 267 266 267 268 270 273 274 276 275 276 277 274 276 276 276 281 282 282

GFSNE_sfc_thetae_051.txt.gz
Theta_e
288 287 286 287 287 288 288 286 285 276 277 280 279 281 281 281 282 283 282 286 287 288 288 289 290 291 291 291 292 293 294 294 295 296 296 297 298 299
288 287 286 287 286 284 283 283 283 281 276 278 278 279 279 282 282 281 281 286 286 287 287 288 289 290 290 291 290 291 292 293 293 294 294 295 296 298
287 286 285 285 283 282 282 281 279 278 276 277 278 278 277 277 279 279 281 280 282 286 287 287 287 288 288 289 289 290 290 291 291 292 293 294 296 297
287 285 285 286 283 282 280 279 279 278 276 275 276 276 276 277 277 277 280 283 281 284 285 285 286 286 286 287 288 289 290 290 290 291 292 292 294 295
286 284 284 283 282 281 280 278 277 279 277 275 276 276 276 276 277 278 279 279 282 284 283 284 285 285 286 287 288 288 288 289 290 291 291 291 292 292
285 284 284 283 281 280 279 278 277 276 276 275 275 275 275 277 277 276 277 278 277 280 282 282 284 285 286 286 286 287 288 288 289 290 290 290 290 292
284 284 283 284 285 283 280 277 276 275 275 274 274 274 274 274 274 276 275 275 277 278 278 278 280 280 281 283 285 286 287 287 288 289 290 290 290 291
282 281 282 284 285 287 286 284 279 276 274 272 272 272 273 274 274 274 274 274 273 277 277 277 280 279 281 281 284 285 287 288 288 288 290 290 289 290
280 280 281 283 283 281 283 282 281 281 278 274 272 272 272 274 274 275 275 276 276 278 278 276 278 278 280 282 285 286 287 287 288 289 289 289 289 289
280 282 282 281 280 279 278 277 277 277 277 276 275 275 275 276 276 278 278 277 277 277 277 274 278 277 280 281 284 286 287 288 289 289 289 289 289 289
281 281 282 280 282 283 278 277 277 277 279 280 280 281 281 281 280 276 274 274 273 275 278 275 275 277 279 280 281 285 287 287 288 287 288 289 289 289
280 281 284 282 282 282 276 275 273 276 276 275 276 277 278 277 279 277 275 273 273 272 277 274 276 278 276 276 277 280 279 283 286 287 287 288 289 287
280 280 280 283 283 282 282 276 274 277 276 276 276 275 276 276 276 277 277 275 273 274 277 278 276 277 279 278 277 278 277 280 282 285 285 286 288 287
280 281 281 283 283 283 282 281 282 279 276 274 272 272 272 273 275 276 277 277 277 277 278 278 277 278 277 276 277 277 277 280 284 284 282 283 285 287
282 282 282 283 284 282 283 283 279 276 273 268 271 271 271 273 275 276 277 276 277 278 280 278 278 277 278 277 277 279 279 281 282 282 283 280 279 283
282 283 281 281 279 278 277 279 276 275 274 273 271 270 271 272 271 273 271 273 273 273 277 278 278 278 276 278 280 279 279 278 280 283 280 277 280 284
281 281 279 278 278 277 277 276 275 274 272 270 269 269 270 271 270 272 272 272 269 271 272 276 277 277 278 280 277 277 277 279 282 281 279 279 282 284
280 278 277 277 277 276 275 276 274 273 274 272 270 271 270 269 269 271 271 269 268 270 271 273 274 273 276 278 281 277 277 279 282 281 281 279 279 283
281 278 277 277 276 275 275 274 273 273 274 272 271 270 270 269 268 269 268 269 268 270 271 272 273 272 270 268 275 282 278 278 280 278 280 280 279 280
282 279 275 276 276 276 275 274 274 274 271 270 269 270 266 266 266 267 268 263 266 269 271 271 271 272 271 271 271 272 281 279 276 278 279 281 281 283
282 281 279 278 277 277 276 275 274 273 267 266 270 269 265 266 264 265 264 264 263 270 269 269 270 274 276 278 272 271 273 280 281 278 278 276 275 278
282 279 280 280 279 277 276 275 273 271 268 269 269 269 266 264 264 262 259 261 266 265 267 270 272 274 275 276 275 273 274 273 278 280 281 280 277 272
282 280 279 280 280 279 278 276 275 273 272 272 272 270 266 263 264 263 260 263 266 265 266 267 269 271 272 274 274 273 274 274 275 275 275 280 281 282

GFSNE_sfc_thetae_054.txt.gz
Theta_e
288 289 287 287 287 288 288 287 284 280 280 282 282 283 282 283 283 284 282 284 286 287 287 288 289 290 290 291 292 293 294 294 294 295 296 296 297 298
288 287 286 286 286 285 285 285 285 283 279 280 280 281 281 282 282 283 281 285 285 286 286 287 288 288 289 289 290 291 291 292 293 294 294 295 296 296
288 287 286 285 284 283 283 282 281 280 277 279 279 280 279 279 280 280 281 281 282 285 286 286 286 286 287 287 287 288 289 290 291 292 292 293 294 295
287 286 285 286 283 282 281 281 279 279 278 276 277 278 278 279 279 278 280 282 282 284 285 285 285 285 286 286 287 287 288 288 290 290 291 291 292 293
287 285 284 283 281 282 282 280 279 280 278 276 276 278 278 278 278 279 279 280 281 283 283 283 284 285 286 286 287 287 287 288 288 289 289 290 290 291
286 285 283 282 281 282 280 279 279 277 277 276 276 276 276 277 278 276 276 278 278 280 281 282 283 284 285 285 286 286 287 287 288 288 289 289 289 290
284 283 283 284 286 284 280 279 278 276 276 276 275 275 275 274 274 276 275 276 277 279 279 280 281 282 282 284 284 285 286 287 287 288 288 289 289 290
283 282 282 285 285 287 288 287 280 277 276 274 274 274 273 274 275 274 274 274 273 280 279 278 281 280 281 282 284 285 286 287 287 288 288 289 289 289
282 281 281 283 285 283 283 286 284 283 279 277 274 274 273 275 276 275 275 276 276 278 278 276 279 278 281 282 284 285 286 287 287 288 289 289 289 289
282 281 280 281 281 282 280 278 278 279 279 278 277 275 276 277 277 277 277 276 277 278 279 274 278 278 281 282 284 285 286 287 288 288 288 289 288 289
282 281 281 281 284 285 280 278 278 278 281 282 281 281 281 281 281 278 274 274 272 274 277 276 278 277 280 281 283 285 287 287 287 287 288 288 288 288
281 281 284 283 284 284 279 277 275 277 277 277 276 278 280 278 279 278 276 273 272 272 278 275 276 277 276 281 281 284 284 284 285 286 287 287 287 286
281 281 281 284 285 284 283 278 276 278 277 276 276 277 277 277 277 278 277 276 273 273 277 277 276 276 277 277 280 282 283 283 284 284 286 287 286 287
281 281 282 284 285 285 283 282 281 279 277 276 275 275 275 275 276 277 277 278 278 276 278 278 276 276 276 276 275 281 282 284 283 284 285 286 285 286
283 282 283 284 285 283 284 283 281 279 277 276 275 275 275 276 277 276 277 277 277 277 278 278 277 277 277 275 276 278 280 282 283 283 284 284 283 284
282 284 282 282 281 282 281 282 282 279 278 276 275 275 274 274 274 275 273 274 274 274 277 278 278 277 275 276 277 280 280 278 282 283 283 282 285 286
281 281 281 280 280 279 279 279 279 278 276 275 273 273 272 273 273 274 274 273 271 271 273 275 277 277 277 276 276 279 279 280 282 283 282 282 285 285
281 280 280 279 278 278 278 277 278 276 277 275 273 274 273 272 272 272 273 271 270 271 272 273 274 274 275 278 282 279 279 279 280 282 281 280 281 283
282 280 280 279 278 278 278 277 276 277 277 275 274 273 272 272 271 271 271 271 270 271 272 273 272 272 271 270 276 281 278 279 279 281 282 281 281 282
283 281 281 280 279 278 278 277 277 277 274 274 272 271 270 271 270 270 271 268 269 271 271 272 271 271 271 272 273 276 280 279 278 278 278 280 283 283
280 279 282 281 279 279 278 278 277 276 274 270 271 270 268 270 269 270 269 266 266 271 270 270 272 273 274 277 274 275 278 280 281 278 278 277 278 280
280 280 281 282 281 279 278 278 277 275 273 271 270 269 269 269 269 268 266 267 270 270 269 271 272 273 274 275 274 276 277 278 279 280 280 281 279 276
272 274 280 281 280 280 278 278 277 275 275 273 272 271 269 270 269 268 267 267 269 269 269 269 270 271 272 273 273 273 274 276 277 277 278 280 281 281

GFSNE_sfc_thetae_057.txt.gz
Theta_e
297 297 296 297 296 295 295 294 290 286 286 290 289 292 292 291 289 289 288 287 286 287 287 287 288 289 290 291 291 292 293 294 294 295 296 296 297 297
296 296 296 295 295 295 295 294 293 289 285 290 289 289 289 288 288 288 287 285 286 285 286 286 287 288 288 289 289 290 291 291 292 293 294 295 295 296
295 295 295 295 294 294 293 292 290 289 286 288 288 288 287 287 287 287 286 286 286 285 285 286 286 286 286 287 287 288 288 289 290 291 292 293 294 295
295 294 294 293 293 293 292 290 289 290 287 285 287 286 286 287 286 285 284 284 285 285 284 285 285 285 286 286 287 287 288 288 288 289 290 291 292 293
295 294 294 294 292 292 291 289 290 289 287 285 284 286 285 286 285 284 283 284 284 284 284 284 284 285 286 286 286 287 287 288 288 288 288 289 289 290
295 294 294 293 292 292 290 289 289 287 286 285 284 284 284 285 284 281 281 283 282 283 284 284 284 285 285 285 285 286 287 287 288 288 288 288 289 289
295 294 294 293 291 290 289 289 287 286 285 284 283 283 283 283 281 281 280 281 282 284 284 284 284 285 286 285 286 286 286 286 287 287 288 288 289 289
293 294 293 289 289 288 289 288 287 287 285 284 283 282 282 282 281 280 280 279 278 284 282 281 284 283 285 286 285 285 285 286 287 287 288 288 289 289
293 292 291 289 288 289 287 286 286 286 283 285 283 283 282 282 280 280 280 279 279 282 281 279 283 282 285 285 285 285 286 287 287 287 288 289 289 289
293 292 291 291 290 289 287 287 287 287 286 284 284 284 284 282 282 281 281 280 281 282 282 277 282 282 284 285 285 286 286 287 287 288 288 288 288 288
292 291 291 290 288 286 286 285 285 285 284 283 283 283 282 281 282 282 280 279 278 279 282 280 281 281 282 284 287 286 286 286 286 286 287 287 288 287
291 291 287 288 286 285 286 286 283 284 284 283 283 283 282 283 281 282 281 278 278 277 282 278 279 280 278 283 285 286 287 286 286 286 286 287 287 289
289 289 290 286 285 285 285 286 285 286 283 283 283 282 282 282 283 283 283 281 278 278 281 280 278 279 278 278 282 284 286 287 288 289 288 287 287 287
288 290 290 287 285 285 286 285 284 283 284 283 282 281 282 282 283 283 283 282 282 280 281 281 278 277 276 277 278 283 285 287 288 288 288 288 287 287
289 289 287 286 285 285 285 285 283 283 283 281 281 281 282 283 283 282 281 282 281 281 280 281 280 279 279 277 278 280 281 285 287 286 286 286 286 287
286 287 286 285 285 286 285 285 285 286 284 282 282 283 283 281 280 282 280 280 278 279 280 281 280 280 278 279 280 280 282 282 285 286 284 285 288 288
285 286 285 285 283 283 284 284 285 285 283 283 282 281 280 280 280 281 280 279 277 277 277 279 280 280 280 280 279 281 283 283 284 283 283 283 285 287
284 283 284 284 283 283 283 283 283 282 283 282 282 281 280 280 280 280 279 278 277 277 277 278 278 279 280 282 282 281 282 282 283 284 283 282 283 286
282 284 284 284 283 282 282 282 282 283 283 282 281 281 281 280 279 279 279 278 277 277 277 278 277 277 276 275 281 281 280 281 282 283 283 283 283 285
282 283 284 285 284 283 283 283 283 282 281 281 281 281 280 279 279 278 278 277 277 276 276 277 277 277 276 276 276 280 280 281 281 280 281 283 286 283
274 274 280 284 284 284 283 283 283 282 282 281 281 280 280 280 279 279 278 275 274 275 275 276 277 276 278 280 277 280 283 280 281 280 280 281 282 283
271 271 273 275 278 284 284 284 283 282 281 280 281 281 280 279 279 278 278 277 276 276 276 277 277 277 278 278 277 278 280 282 282 280 281 281 280 279
269 269 271 272 274 276 280 284 283 282 281 281 281 280 279 278 279 279 279 276 276 275 275 275 276 277 276 277 276 278 278 279 280 280 282 280 280 281

GFSNE_sfc_thetae_060.txt.gz
Theta_e
299 299 298 300 300 299 298 297 294 290 290 294 293 297 296 295 295 293 292 292 289 288 287 287 288 289 290 290 291 291 292 293 293 294 295 296 296 297
297 299 300 299 299 299 298 297 296 293 289 294 294 295 295 293 293 292 292 290 289 288 287 287 287 288 288 288 289 289 290 290 291 292 293 294 295 296
299 299 299 300 298 298 298 297 295 294 290 292 294 295 293 292 292 292 292 291 290 289 287 287 286 286 287 287 287 288 288 289 290 290 291 292 293 294
299 299 298 297 298 298 297 296 295 295 292 289 293 292 292 293 292 291 289 289 289 288 287 286 286 285 286 286 287 287 287 288 288 289 290 290 291 292
299 298 298 298 297 297 296 295 295 293 293 291 290 292 291 291 290 290 289 288 288 288 288 287 286 286 286 286 286 287 287 287 287 288 288 289 289 290
299 298 298 298 297 296 295 295 294 292 292 291 289 289 289 290 290 287 286 287 286 287 288 287 286 286 286 286 286 286 286 287 287 287 288 288 288 289
299 298 299 297 295 295 295 294 293 292 291 289 287 287 287 287 286 287 285 285 286 287 287 288 288 288 288 288 288 287 287 287 287 287 287 288 288 289
297 298 298 295 294 291 289 289 290 291 289 287 286 285 286 288 287 286 284 282 281 288 286 285 287 286 287 288 288 286 286 286 287 288 288 288 288 288
297 297 296 295 294 295 290 288 288 287 285 289 287 287 287 287 287 285 284 283 283 285 285 283 286 285 287 287 288 287 286 287 287 287 288 289 288 288
296 296 295 295 295 294 293 292 292 291 289 288 289 289 288 288 287 285 284 284 284 285 286 281 285 284 287 288 287 287 287 286 287 287 287 287 287 288
295 295 295 294 292 291 292 291 290 290 289 287 287 286 285 283 283 284 283 282 281 282 286 283 283 283 284 286 287 288 287 287 287 287 287 287 287 287
294 294 290 291 290 288 291 290 288 289 288 288 287 285 284 286 283 284 284 281 281 281 285 282 282 282 280 285 286 286 288 287 288 288 289 289 288 290
290 291 293 289 288 287 287 290 290 290 288 288 287 287 286 286 286 285 284 284 282 281 285 283 281 281 281 281 283 285 287 288 288 289 289 289 289 288
287 288 290 288 288 287 287 287 286 286 289 288 285 284 284 284 285 286 286 286 286 284 285 284 281 281 280 280 280 283 286 288 289 289 289 289 288 288
287 287 286 286 286 286 286 285 285 288 286 285 285 284 285 287 286 286 285 285 285 285 284 284 282 282 281 280 279 281 282 285 288 288 288 287 286 289
285 288 286 284 284 285 286 287 286 287 286 285 286 286 287 286 284 284 283 282 282 283 284 284 283 282 280 281 281 281 283 282 287 287 286 286 287 289
282 285 286 286 286 286 287 286 288 287 286 286 286 285 285 284 284 284 283 281 280 280 281 283 284 283 282 281 280 281 282 284 286 285 285 284 287 289
283 283 284 285 285 285 286 286 286 285 285 286 286 285 283 283 282 283 283 281 280 281 281 282 282 281 282 284 284 282 283 284 283 284 285 283 284 288
279 280 280 281 285 286 286 286 285 287 286 285 285 284 283 283 283 282 282 280 279 281 281 282 281 279 277 277 284 282 281 282 282 282 283 283 283 286
277 276 277 278 279 281 286 286 286 286 286 284 284 285 284 283 282 280 280 280 280 280 280 281 281 280 278 277 278 282 282 282 281 281 281 283 286 285
275 275 275 275 276 278 280 285 285 285 285 284 284 284 284 283 282 281 281 280 279 279 278 279 281 278 279 281 279 281 285 282 281 281 281 281 282 285
273 273 274 274 273 275 277 280 282 285 285 284 284 284 284 283 282 281 281 280 278 279 279 281 281 280 280 279 278 280 282 284 284 281 281 280 280 278
272 272 272 272 273 273 274 275 277 279 284 284 284 283 284 282 282 282 281 280 279 279 279 279 279 279 278 279 278 279 279 280 282 282 284 280 280 280

GFSNE_sfc_thetae_063.txt.gz
Theta_e
299 299 297 299 301 301 300 298 294 290 291 295 295 299 298 299 298 296 295 294 294 292 291 290 289 289 290 290 291 291 292 292 293 293 294 295 296 296
297 296 298 301 301 300 300 298 297 294 291 294 295 297 297 296 297 295 294 295 293 292 292 290 289 288 289 289 289 289 290 290 291 292 292 293 294 294
296 298 299 301 300 300 299 298 296 295 291 294 295 297 297 297 296 296 295 294 293 293 292 290 289 288 287 287 287 288 288 289 290 290 291 292 292 293
298 300 300 299 300 300 298 297 296 296 294 292 294 294 295 296 296 295 292 292 292 292 292 290 288 288 287 287 287 287 287 288 288 288 289 290 291 292
300 300 300 299 299 299 298 297 297 295 296 293 292 295 295 295 294 294 293 293 291 292 291 290 289 288 288 288 288 288 287 287 287 287 288 288 289 290
301 300 299 299 298 298 298 298 297 296 295 293 292 292 293 294 292 290 290 291 289 289 290 289 290 290 290 290 289 288 288 288 287 287 288 288 288 288
300 300 300 299 296 296 296 297 296 295 294 292 291 291 290 289 288 290 288 289 289 289 288 288 289 289 289 290 290 290 289 287 287 287 287 288 288 288
298 299 300 297 297 293 292 292 293 293 292 291 290 288 289 289 290 289 288 285 283 289 287 286 288 287 288 289 289 288 288 287 287 287 288 289 289 289
297 297 297 297 295 297 293 290 290 289 286 291 289 289 288 289 289 287 286 285 284 286 286 284 288 287 288 288 289 289 288 288 287 287 287 288 288 288
296 296 297 297 297 296 296 295 295 294 292 290 290 290 290 291 290 288 287 285 285 286 287 283 287 286 288 288 288 289 289 288 287 288 288 288 288 287
294 294 294 295 293 292 293 292 293 293 293 291 291 290 287 285 284 286 284 283 282 283 287 285 285 284 285 286 288 288 287 287 288 288 288 289 289 288
291 292 290 290 288 288 290 291 289 291 292 292 290 289 287 287 284 285 285 282 282 281 285 284 283 283 281 285 286 288 288 288 288 288 288 289 289 289
286 287 289 287 287 287 287 288 288 291 290 291 290 290 289 288 287 287 286 284 282 282 286 284 282 282 281 281 284 286 287 288 288 289 289 289 289 288
283 285 286 285 285 285 285 286 286 286 289 288 287 288 287 286 288 288 287 287 287 285 286 286 283 281 280 280 280 284 286 287 288 288 288 289 289 288
284 284 283 283 284 285 285 285 285 286 285 285 286 286 287 288 288 288 288 288 287 287 286 286 284 282 282 280 280 281 282 285 287 287 288 288 286 288
281 283 282 282 283 283 284 286 288 286 285 285 287 288 289 288 287 287 286 285 283 283 285 286 286 284 281 281 281 281 283 281 286 287 286 287 288 289
280 282 284 284 284 285 286 287 287 288 285 285 286 287 287 286 286 286 285 283 282 281 282 284 286 285 284 283 281 282 282 283 286 285 284 284 287 289
279 280 280 280 280 281 282 283 287 287 286 287 287 287 286 285 285 285 284 283 281 281 281 283 283 282 282 283 284 282 283 283 284 284 284 283 283 287
278 278 278 278 278 279 279 280 283 287 287 286 285 286 286 285 285 284 283 283 281 281 281 283 282 280 277 277 283 285 282 282 283 282 283 283 281 285
277 276 276 276 277 277 277 278 279 282 287 286 286 286 286 285 284 283 283 282 281 280 280 281 281 280 279 278 278 282 283 282 282 280 281 282 285 285
275 275 276 275 275 275 276 276 277 279 281 285 285 285 285 285 283 283 283 281 281 280 279 279 281 279 281 280 278 280 284 283 283 281 281 280 281 283
274 273 274 274 274 274 275 274 274 276 277 280 285 285 285 285 283 283 282 281 280 280 279 281 282 281 280 278 278 280 281 284 283 283 281 280 280 277
273 272 272 273 273 273 273 273 272 273 275 278 280 283 285 283 284 283 283 282 281 280 280 279 280 280 279 278 278 278 280 281 281 281 283 281 281 281

GFSNE_sfc_thetae_066.txt.gz
Theta_e
297 298 297 297 297 297 298 297 292 285 286 290 290 293 294 294 293 292 291 296 294 294 293 293 293 292 291 291 291 292 292 292 293 293 294 294 294 295
297 297 296 297 297 297 298 297 295 291 287 291 290 291 293 294 295 291 291 296 295 294 294 294 294 292 290 290 290 290 290 291 291 291 292 293 294 294
296 296 295 297 297 298 297 296 294 292 288 289 290 291 290 290 292 291 292 290 290 295 294 294 293 291 290 289 289 289 289 289 290 290 291 291 292 293
295 296 297 300 297 297 296 295 292 291 289 287 289 289 289 290 290 289 291 292 288 293 294 293 292 291 291 290 289 289 289 289 289 289 289 289 290 291
297 298 298 298 296 294 295 292 292 294 290 288 288 288 288 289 288 289 288 288 291 294 293 292 292 292 291 291 290 290 289 289 289 288 288 288 288 289
299 298 299 296 295 295 294 292 293 290 290 289 289 288 286 288 288 286 284 286 285 291 290 289 290 291 292 291 291 291 291 291 290 289 289 288 288 288
297 298 297 297 297 295 295 292 290 289 288 287 287 285 284 284 283 283 283 283 284 286 284 283 283 284 284 288 290 290 290 290 291 289 288 288 288 288
294 296 296 295 295 293 293 292 293 291 290 288 287 285 284 284 284 283 282 281 281 284 282 280 282 281 283 284 289 290 289 288 288 288 288 288 288 288
292 292 293 295 293 293 292 291 290 290 288 290 288 287 286 286 285 284 283 282 281 282 280 278 280 279 284 287 289 289 289 289 289 289 288 288 288 288
291 291 290 290 291 289 288 287 289 290 289 288 287 288 289 289 287 286 284 282 281 281 282 278 280 281 282 282 288 289 289 288 288 288 288 288 288 288
290 289 288 287 288 288 285 284 285 286 291 291 291 291 290 290 289 284 279 280 277 279 280 280 280 279 280 280 281 288 288 288 288 288 288 289 288 289
283 285 286 286 286 286 283 283 281 283 284 285 285 288 289 288 286 284 282 280 278 276 280 279 279 279 275 279 280 281 281 286 287 288 289 289 289 286
280 280 281 284 284 284 284 281 280 282 282 282 283 285 288 287 286 283 283 282 280 278 281 279 278 278 276 276 277 279 280 281 281 283 287 288 289 288
279 280 280 282 283 283 282 283 284 283 283 283 283 283 285 287 286 284 284 283 282 281 282 282 278 278 276 274 276 277 278 280 280 280 280 286 288 288
279 280 280 281 282 282 284 284 283 282 281 282 282 282 284 287 287 285 286 284 283 283 285 283 280 280 277 275 276 276 277 278 280 280 282 284 281 283
278 277 278 279 280 280 281 281 282 282 283 283 283 284 285 286 284 284 283 280 280 278 282 283 282 281 278 278 277 277 277 274 279 279 284 279 279 282
275 276 277 277 277 277 277 278 278 279 279 283 284 283 284 285 284 284 284 282 279 278 278 280 282 282 281 279 277 278 278 278 278 283 279 278 281 280
275 274 273 273 273 274 275 275 276 276 278 278 283 284 284 283 282 284 283 281 277 278 279 279 279 279 280 280 283 279 278 278 280 279 279 277 278 279
272 273 270 271 272 273 274 274 273 275 276 277 282 283 283 282 280 281 281 281 280 280 280 279 279 277 273 271 277 284 274 276 277 279 280 280 278 279
274 272 271 271 272 272 272 272 273 273 273 275 276 281 279 281 280 280 281 280 280 280 279 279 278 279 275 272 269 273 283 277 277 277 279 280 279 283
272 271 270 271 271 271 271 271 272 271 272 273 274 276 281 278 278 280 280 280 279 280 278 278 278 279 278 276 267 269 274 284 282 278 276 273 275 275
270 270 271 270 270 270 270 270 270 270 270 271 272 274 274 278 278 278 281 280 279 279 279 278 279 279 277 276 272 269 275 277 283 284 283 280 274 269
268 270 270 269 269 269 269 269 269 268 269 270 270 271 271 271 274 281 282 281 280 277 278 276 278 279 277 277 275 273 273 272 276 276 275 282 282 281

GFSNE_sfc_thetae_072.txt.gz
Theta_e
301 300 300 299 299 299 299 297 293 288 288 288 289 293 291 290 292 292 294 298 298 297 297 298 299 297 297 296 296 295 294 293 293 293 293 293 294 295
300 299 298 298 298 298 297 296 295 293 289 288 289 289 290 292 292 292 292 296 297 296 296 296 297 297 298 297 296 295 294 293 292 292 292 292 293 293
298 298 297 298 296 295 296 296 294 291 288 289 288 289 287 288 290 290 291 290 291 296 295 295 295 295 296 296 296 295 293 292 292 292 292 292 292 292
297 297 297 297 295 295 295 293 290 290 288 288 286 286 287 288 288 288 290 291 290 293 295 295 295 294 294 295 294 294 293 293 292 291 292 291 292 292
297 296 296 296 295 295 293 293 295 295 292 289 290 287 286 287 286 287 288 289 290 293 293 294 295 295 294 294 294 293 293 292 292 292 292 291 291 291
297 297 297 297 296 294 294 293 291 287 287 287 288 287 284 287 288 287 286 285 287 289 292 291 292 294 294 294 293 293 293 293 292 292 291 291 290 290
298 298 297 296 296 294 293 288 287 287 286 284 285 286 284 281 281 284 283 284 282 284 285 286 288 286 285 292 291 293 293 292 292 291 290 290 290 290
294 293 291 289 289 288 288 287 286 282 280 280 281 282 283 284 283 285 283 284 283 284 285 286 285 283 283 282 286 289 289 290 290 290 289 289 289 289
287 286 287 286 285 284 284 284 283 285 283 281 280 280 281 283 284 285 285 284 284 285 284 281 282 282 282 283 288 289 290 290 290 290 289 289 288 288
283 283 281 281 283 282 281 279 279 279 279 280 279 280 281 283 283 284 283 283 285 287 285 282 279 280 280 280 286 288 290 289 289 289 289 288 288 288
282 281 281 280 283 283 280 278 278 279 283 285 285 285 285 285 285 282 280 279 278 283 281 283 280 280 278 278 280 286 288 287 287 287 288 288 288 288
279 280 281 280 281 281 279 278 278 279 280 282 282 283 284 283 284 282 282 280 280 280 281 281 280 278 274 276 278 278 278 283 285 285 286 286 286 283
278 277 277 280 281 282 282 279 279 279 279 279 279 279 280 281 282 283 284 282 281 282 283 283 279 278 275 275 276 278 278 278 278 279 283 284 285 285
277 277 277 280 281 281 279 280 279 278 276 275 275 277 277 277 278 282 284 284 284 284 286 284 280 279 276 274 274 276 276 276 275 276 277 281 285 286
278 278 278 279 279 279 278 278 276 275 273 273 273 274 275 276 278 280 284 285 285 286 286 284 281 279 278 276 274 274 274 277 276 274 275 276 279 280
277 277 276 277 276 276 276 276 275 274 273 272 272 273 274 275 276 279 283 283 283 282 284 284 282 280 276 277 278 275 276 274 275 276 277 280 280 277
275 275 275 274 273 273 273 273 273 272 271 271 271 270 271 273 274 276 276 283 281 279 280 281 281 280 280 279 275 277 277 276 274 275 278 277 278 278
275 272 269 267 269 271 270 270 270 270 270 270 269 269 269 270 272 273 275 282 280 280 279 280 280 280 279 278 281 277 274 273 275 277 278 274 276 278
271 270 265 264 266 270 269 269 268 268 269 268 268 267 268 269 270 270 271 279 280 279 278 279 280 278 275 269 278 283 276 275 275 273 275 274 272 276
272 270 268 268 268 268 268 267 267 266 265 266 266 265 266 267 268 269 270 269 277 280 278 280 279 279 276 272 272 273 283 276 275 271 272 274 276 280
270 269 268 268 267 267 262 260 258 259 260 262 262 263 264 265 266 268 269 268 269 278 278 278 279 280 279 276 270 269 271 280 278 274 274 270 272 274
268 268 268 267 262 263 259 257 260 259 261 262 261 263 260 263 264 266 267 267 267 270 278 277 280 279 276 276 273 268 271 272 278 283 281 279 272 269
264 266 263 260 260 259 263 258 260 257 261 264 263 263 261 262 264 266 266 266 268 270 273 278 279 278 277 278 275 273 272 270 274 274 273 280 282 282

GFSNE_sfc_thetae_075.txt.gz
Theta_e
304 304 304 301 301 301 300 298 296 291 290 293 291 291 291 291 292 292 292 297 299 299 299 300 302 302 302 300 300 298 298 298 297 295 294 294 294 295
303 302 300 300 299 299 298 298 296 294 290 292 292 291 290 291 292 292 290 297 298 298 297 297 298 300 300 300 300 298 297 297 296 295 294 294 294 294
300 300 299 299 298 297 296 296 295 294 291 292 289 288 287 288 289 289 291 290 291 297 297 297 296 296 297 297 297 298 298 297 296 294 294 294 293 294
299 298 298 298 296 296 295 294 294 292 289 285 287 287 286 288 287 287 290 291 289 293 295 296 296 296 295 295 295 296 296 296 295 294 293 293 292 293
299 298 297 296 295 295 295 294 293 295 292 289 290 289 286 286 286 286 287 287 289 294 294 294 295 296 295 295 295 295 295 294 294 293 293 292 291 292
298 297 297 297 296 295 295 294 293 290 288 284 283 284 284 285 284 284 286 285 285 290 292 292 293 294 295 295 294 294 293 294 293 292 291 291 291 291
297 298 298 296 293 292 293 287 284 282 281 280 280 280 280 280 281 282 283 284 285 283 285 286 287 287 288 293 293 294 294 293 293 292 292 291 290 290
295 293 290 289 288 288 287 287 284 280 278 278 278 277 277 278 280 280 281 281 279 284 283 284 285 285 285 287 288 290 291 292 292 291 291 290 289 289
289 288 286 285 284 282 283 282 282 282 280 278 276 276 277 278 278 279 279 279 279 282 283 282 281 283 285 287 289 289 289 290 290 290 290 289 289 289
284 283 282 281 282 281 280 278 279 279 280 280 277 277 278 279 280 281 280 280 281 281 281 278 282 282 285 282 287 288 289 290 290 290 289 289 288 288
281 281 280 279 282 282 279 278 278 279 282 283 283 284 284 285 284 282 280 279 278 279 280 280 282 281 278 281 283 286 289 289 289 288 288 288 288 288
279 279 281 280 280 281 280 278 277 277 277 278 278 279 281 281 282 282 281 279 279 278 280 278 280 281 280 278 281 280 282 287 286 285 285 286 286 282
278 277 277 279 281 281 281 279 278 277 277 276 276 276 277 278 279 279 279 279 279 279 282 280 281 280 280 278 279 279 278 278 278 279 283 284 284 284
277 277 278 279 280 280 278 278 278 276 274 273 273 273 273 274 275 276 278 279 279 281 284 284 281 279 279 277 277 278 276 275 275 276 277 280 283 284
278 278 278 279 279 278 277 277 276 274 272 270 271 271 272 273 274 275 277 278 280 284 285 285 283 282 281 278 276 275 275 276 276 275 274 276 276 279
277 278 277 278 277 276 276 275 274 273 271 271 270 271 272 272 271 273 273 274 273 277 284 284 284 282 279 279 278 277 276 273 274 275 276 275 277 279
276 276 274 273 273 273 273 273 272 272 270 270 269 269 269 269 269 271 271 272 271 276 280 282 283 283 282 280 277 276 275 275 273 275 277 277 277 278
275 272 269 269 270 271 270 270 270 269 269 269 268 268 267 266 267 268 270 270 270 273 280 280 280 279 279 280 282 277 274 272 275 277 278 278 276 276
271 270 266 265 267 270 269 269 268 269 269 267 266 266 265 265 265 266 267 269 269 271 273 280 280 279 275 272 275 283 273 274 273 275 276 274 272 275
272 270 268 269 269 268 268 267 267 266 265 264 263 263 260 264 263 264 265 266 267 269 270 279 280 279 276 272 270 274 283 276 274 272 271 273 276 280
270 269 269 269 268 267 266 263 260 261 259 255 258 259 258 262 262 262 264 265 266 268 269 270 279 280 279 278 270 271 272 281 279 275 274 271 272 272
269 268 268 268 266 265 262 260 259 255 256 257 257 255 257 258 261 261 262 263 265 267 268 271 273 281 277 276 273 269 271 272 278 282 280 279 273 268
266 266 266 264 263 262 264 261 258 254 258 259 261 261 259 259 261 262 263 262 264 266 268 269 271 279 277 277 275 274 272 270 273 274 274 281 282 282

GFSNE_sfc_thetae_078.txt.gz
Theta_e
310 309 305 305 304 303 302 301 299 293 292 295 294 294 294 294 294 295 294 296 298 299 300 301 303 304 304 305 305 304 303 302 301 300 299 298 297 296
309 307 306 303 303 301 301 299 298 296 292 295 293 293 295 294 294 294 292 296 297 297 298 299 300 301 302 302 302 303 302 302 300 299 298 298 297 296
305 305 305 303 300 299 298 297 296 295 292 294 293 293 291 291 292 292 292 292 292 295 296 297 297 298 299 299 299 300 301 300 300 297 297 298 297 296
303 303 301 300 298 297 296 295 295 294 292 290 290 290 289 290 290 289 291 292 291 293 294 295 296 297 296 296 297 297 298 298 297 296 296 296 296 295
302 302 301 299 296 296 295 295 294 295 292 290 290 291 290 288 288 288 289 290 290 293 294 294 294 295 295 296 296 296 296 296 295 294 294 294 295 293
302 302 299 298 296 295 295 294 294 291 289 288 287 286 285 286 285 284 284 286 286 289 290 290 291 293 294 294 295 295 295 295 294 293 292 292 292 292
299 299 297 296 293 293 295 288 287 285 284 283 281 281 281 281 280 282 281 282 284 285 285 287 287 288 289 290 292 295 295 294 294 293 293 292 291 291
293 290 289 288 287 287 287 286 285 282 280 279 279 278 277 278 280 280 279 279 278 284 283 282 285 285 287 289 290 292 293 293 292 293 293 292 291 290
289 287 286 286 285 284 283 283 282 282 280 280 277 278 278 279 279 278 279 279 278 282 282 280 283 282 284 285 288 290 291 291 291 291 291 290 290 289
285 285 284 283 283 282 280 280 280 280 281 281 279 280 280 280 281 282 281 281 281 282 283 278 282 281 283 285 287 289 290 290 289 290 290 290 289 288
282 282 282 281 282 282 280 280 279 280 282 282 282 282 282 282 283 282 279 278 277 279 283 280 281 281 283 284 285 287 289 289 289 290 290 289 289 288
280 281 281 280 281 282 280 279 277 277 278 278 277 278 279 280 281 281 280 277 276 276 281 279 281 281 280 282 282 283 285 287 288 289 288 286 287 286
278 277 278 280 281 282 280 279 277 277 276 275 275 276 277 277 277 277 277 276 275 275 279 280 280 281 281 280 281 282 283 283 284 285 285 285 285 285
278 277 278 280 281 280 278 278 277 276 275 274 273 273 273 273 274 275 276 277 278 278 279 280 279 281 280 279 278 280 281 281 281 281 282 282 283 284
278 278 279 279 279 278 277 277 276 274 273 271 271 271 272 273 273 274 275 276 276 277 278 278 279 282 282 280 280 279 280 281 280 281 281 281 281 282
277 278 277 278 276 276 276 275 274 273 272 271 270 271 272 271 270 271 271 272 272 273 277 279 281 283 282 282 281 279 280 279 280 280 280 281 281 282
276 276 274 274 273 273 273 273 272 272 270 270 269 269 269 269 268 270 269 269 269 270 271 275 280 285 284 282 279 280 280 279 279 279 279 279 281 282
275 273 270 270 270 271 271 270 271 270 270 269 268 267 267 267 266 267 267 267 267 268 270 272 273 280 280 281 283 280 279 279 280 280 280 279 279 282
272 271 269 268 269 270 270 269 268 269 269 268 267 266 265 266 265 265 265 265 265 267 268 271 273 276 276 275 279 284 279 278 278 278 279 279 279 281
273 271 269 269 269 269 269 268 267 267 266 266 264 264 263 263 263 263 263 262 263 266 267 270 272 274 276 277 277 278 283 279 278 278 277 278 280 280
271 270 270 269 269 268 267 266 264 263 263 262 260 260 259 261 262 262 262 262 262 264 264 266 270 273 274 278 277 276 278 281 281 280 277 277 277 278
269 269 269 268 266 266 264 262 262 262 262 261 260 258 259 259 260 260 261 261 262 263 264 267 270 272 272 277 276 274 276 276 280 282 280 280 278 275
265 265 265 265 264 264 264 263 261 258 260 260 260 261 258 258 261 261 262 262 262 262 263 265 268 270 270 278 277 276 274 275 277 277 278 280 281 281

GFSNE_sfc_thetae_081.txt.gz
Theta_e
320 319 313 314 312 309 309 307 305 297 300 300 300 301 302 301 301 303 302 299 298 298 299 301 303 305 305 306 306 307 307 307 306 305 304 303 302 302
317 315 314 311 309 307 306 304 307 305 299 303 302 300 299 299 302 302 301 296 297 296 297 298 299 301 302 303 303 304 305 306 305 305 304 302 302 301
312 309 309 311 306 304 304 301 303 301 300 299 302 297 297 300 301 301 300 301 301 296 295 295 296 297 298 298 299 300 301 302 303 303 303 302 302 301
309 308 309 304 301 300 300 299 299 300 297 296 295 293 294 297 298 298 298 297 299 296 294 295 295 295 295 295 296 297 297 298 298 300 301 301 300 300
310 307 305 301 299 299 298 299 296 296 295 293 293 294 294 296 296 295 295 295 294 293 292 293 293 294 294 293 294 295 295 296 296 296 296 297 297 297
306 305 303 301 299 298 297 296 297 295 294 293 292 291 291 294 292 290 288 289 287 288 289 289 290 290 291 292 292 292 292 293 294 295 294 293 293 294
300 300 299 299 297 296 298 295 294 290 288 287 286 289 289 290 288 287 284 286 287 288 288 289 289 289 289 289 290 290 291 291 292 294 294 293 292 292
293 293 291 290 289 289 288 288 289 287 286 285 287 285 285 285 285 285 284 283 282 289 286 285 287 286 289 289 289 288 288 289 291 292 293 292 292 291
290 288 287 286 287 285 284 284 283 283 282 284 283 283 284 285 285 283 283 283 283 286 285 283 287 286 288 288 289 288 288 289 289 290 291 291 291 291
287 286 285 284 284 283 282 281 282 282 283 283 285 285 285 285 285 285 285 284 285 286 286 282 286 285 288 289 289 289 289 289 290 290 290 290 290 289
283 284 283 283 283 283 281 281 281 281 282 281 281 281 281 281 282 284 282 281 281 282 284 283 285 285 286 287 289 289 288 288 288 290 290 289 289 289
281 281 282 282 282 282 282 281 280 281 281 280 280 280 280 281 279 281 281 279 279 279 285 282 282 282 281 287 288 289 289 288 287 288 289 289 290 290
279 279 280 282 283 281 281 282 280 280 278 278 278 278 279 278 278 279 279 278 278 278 282 281 280 281 280 281 285 287 288 289 287 289 288 289 287 287
278 279 281 282 282 280 280 279 277 277 278 277 276 276 276 276 277 277 277 277 279 278 280 280 278 278 278 278 280 286 287 288 288 288 288 286 285 285
281 280 280 281 280 279 278 277 276 278 276 275 274 275 275 276 276 276 276 276 277 277 278 278 278 279 279 277 280 284 283 286 287 287 287 286 286 287
279 280 279 279 278 278 278 277 278 277 275 274 274 275 275 274 274 275 273 274 273 274 277 278 279 279 278 281 282 284 284 282 287 286 286 287 287 287
279 279 279 278 277 277 277 276 276 275 274 274 273 273 273 272 272 273 272 272 271 271 273 276 278 279 280 280 283 284 283 284 286 285 284 284 285 286
278 277 276 276 275 274 275 274 274 273 273 273 272 272 271 270 270 271 271 270 269 270 271 273 275 276 279 283 286 284 283 284 285 285 284 283 283 286
277 276 275 274 274 274 273 273 272 272 271 271 270 270 269 269 268 269 269 269 269 270 271 272 273 273 273 274 283 285 284 284 284 284 284 284 283 284
275 274 273 273 273 272 272 271 271 270 270 269 269 268 268 267 267 267 268 267 268 268 268 271 272 273 271 270 272 280 284 284 284 283 283 285 285 280
273 273 273 272 272 271 270 270 269 268 268 267 267 266 266 266 266 267 267 265 265 267 267 268 271 272 273 274 273 276 283 284 285 284 284 283 281 282
270 270 270 270 269 269 268 268 268 267 267 266 266 266 266 266 265 265 266 265 266 267 267 269 271 272 272 271 272 277 281 283 283 282 283 283 282 278
267 267 267 267 267 267 266 266 265 265 265 264 265 265 265 264 265 265 266 266 266 266 266 267 269 271 271 271 271 274 281 280 282 282 283 280 281 281

GFSNE_sfc_thetae_084.txt.gz
Theta_e
328 327 325 325 325 322 319 315 307 299 303 305 306 308 308 308 308 308 309 302 299 299 299 300 301 303 304 306 307 307 306 306 305 306 308 307 306 306
328 325 323 324 322 319 314 312 309 307 304 309 306 307 310 308 304 307 307 302 298 297 297 297 298 299 300 301 302 302 302 303 303 304 305 306 305 304
325 321 321 320 312 311 312 308 307 308 305 305 307 305 306 306 304 302 305 305 306 298 296 296 296 296 297 298 298 298 299 299 300 301 302 303 304 304
318 317 314 312 311 310 308 305 304 307 303 299 298 298 300 301 301 302 301 303 304 300 296 295 295 295 295 295 295 295 296 296 296 297 297 298 299 301
319 314 313 309 308 308 307 305 303 302 298 296 294 297 297 297 297 300 299 303 301 298 293 292 292 293 293 294 293 293 293 294 293 293 294 295 297 298
316 314 312 307 306 303 301 302 299 297 295 295 294 293 293 296 296 295 297 299 296 293 292 290 291 291 291 292 292 292 292 292 292 291 291 291 293 295
310 307 304 303 300 299 300 299 297 293 293 290 287 288 289 290 291 296 293 292 292 293 292 292 292 292 292 292 291 291 291 290 289 289 290 291 292 293
296 294 292 293 291 289 289 289 291 291 287 287 288 286 289 291 292 291 289 288 286 293 290 289 290 289 290 292 291 289 289 289 289 289 290 290 290 293
290 290 288 287 287 285 285 285 284 284 284 287 287 288 288 290 290 288 288 288 287 289 289 287 290 289 292 291 290 290 290 290 290 290 289 290 290 290
288 287 286 285 285 284 283 283 283 283 283 283 285 286 288 289 288 288 287 287 288 288 289 285 289 288 290 291 291 291 290 290 290 289 289 290 290 290
285 285 285 285 284 285 283 282 281 282 283 282 281 281 281 281 282 284 283 284 283 284 288 285 286 287 288 288 289 290 290 289 289 289 288 289 290 289
283 283 283 283 282 283 283 283 282 284 284 284 284 282 281 283 281 282 283 281 281 281 287 284 284 283 282 288 289 289 290 289 289 288 288 288 289 290
280 280 282 283 283 282 283 284 283 284 280 281 282 283 282 283 283 283 282 281 279 280 284 283 282 282 281 282 284 286 288 290 290 290 289 289 288 288
280 281 282 283 281 281 282 279 278 279 283 282 281 280 280 280 281 281 281 281 281 280 281 281 279 279 279 279 279 283 286 290 290 288 290 289 287 287
283 282 282 282 280 280 278 277 277 282 280 279 279 279 279 279 279 279 280 280 280 280 279 279 278 278 279 279 279 281 283 285 289 288 289 289 287 287
281 282 282 282 280 280 280 280 282 280 278 277 278 279 279 279 278 279 277 277 276 277 279 279 279 279 278 279 280 280 282 284 288 288 288 288 288 288
283 283 283 282 282 281 281 279 280 279 278 278 277 276 276 276 276 277 276 276 274 275 276 278 279 280 280 279 278 280 282 285 288 288 287 286 287 288
282 281 280 279 279 278 278 277 278 277 276 275 274 274 274 274 274 275 274 274 273 274 274 276 276 276 277 279 282 282 284 285 287 287 287 284 284 286
280 278 278 277 277 276 276 275 275 275 275 274 273 273 273 272 272 272 273 273 273 273 274 275 274 274 273 272 279 281 278 283 286 286 286 285 284 285
277 276 275 275 275 275 274 274 273 273 272 272 271 271 271 270 270 270 271 270 271 271 271 272 274 274 272 272 272 277 278 277 282 284 284 286 286 281
275 274 274 273 273 272 272 272 271 271 271 270 270 269 269 269 269 269 269 268 268 269 269 271 273 273 274 274 272 275 279 282 282 285 285 284 283 283
272 272 272 272 271 271 271 270 270 269 269 269 268 268 268 268 267 268 268 267 268 268 269 271 272 273 273 272 271 274 275 278 284 282 283 283 284 280
270 270 270 270 270 270 269 269 268 268 268 267 267 267 267 266 267 267 268 268 268 268 268 269 270 271 271 271 272 273 272 274 282 282 283 281 282 282

GFSNE_sfc_thetae_087.txt.gz
Theta_e
330 329 327 328 328 326 324 321 314 306 306 310 306 311 310 311 309 308 308 305 301 301 301 302 303 304 305 305 305 306 306 306 307 307 306 306 306 307
329 328 328 328 327 327 326 321 315 310 304 310 308 310 309 310 308 310 310 305 300 299 298 298 299 301 302 302 302 302 302 302 303 303 303 304 305 306
327 327 326 327 326 325 319 315 313 310 306 309 312 310 306 307 302 305 306 306 307 299 298 297 297 297 297 298 298 298 298 298 298 299 300 300 301 302
325 325 324 323 321 319 314 311 309 310 308 307 307 303 302 302 300 301 302 303 302 302 299 297 296 295 295 294 294 295 295 295 294 294 294 295 295 296
324 324 322 319 317 315 310 309 308 307 306 301 295 297 296 297 297 298 299 300 302 301 295 294 294 294 293 293 294 294 293 293 293 293 292 292 292 293
324 321 320 318 315 313 308 306 302 299 297 297 294 293 293 295 295 294 294 297 298 300 298 293 293 293 293 293 292 292 292 293 292 292 291 290 290 291
320 316 311 309 303 304 303 301 299 297 295 292 290 290 289 289 290 291 290 292 295 297 295 294 295 295 294 293 292 293 293 293 292 291 290 290 290 290
300 295 293 294 291 291 290 290 295 293 290 289 287 287 288 290 290 289 290 290 288 296 293 291 294 292 292 293 292 292 290 291 290 290 290 290 290 289
292 290 289 288 288 288 287 287 286 286 285 289 287 287 287 289 289 289 290 290 289 291 291 289 292 290 292 292 292 292 291 290 290 290 290 290 289 289
288 288 287 286 286 286 285 283 283 284 284 284 285 286 287 289 289 289 288 288 289 289 289 285 289 289 292 292 292 292 291 291 290 290 290 289 289 289
286 286 286 285 285 286 284 282 282 282 283 283 283 282 281 281 282 282 283 283 283 285 290 287 288 287 287 289 290 289 290 290 290 290 290 289 289 288
283 283 284 283 283 285 284 283 282 283 284 284 285 283 281 283 281 281 281 281 281 281 286 282 284 284 282 286 288 290 289 289 290 290 290 290 289 289
281 281 282 283 283 284 284 283 280 284 283 282 283 283 284 284 284 285 284 282 280 279 284 283 280 281 281 280 283 286 287 286 287 289 290 290 289 289
280 282 282 282 282 282 280 279 279 281 283 282 282 282 282 282 283 283 283 282 282 281 281 282 280 278 278 278 278 282 284 286 287 287 289 290 289 289
283 283 282 281 280 280 279 278 279 282 281 280 280 280 281 281 281 281 282 282 281 282 281 282 280 279 279 277 277 279 280 283 285 285 288 289 288 288
282 283 282 282 279 280 280 280 282 281 279 278 279 279 279 279 279 279 278 278 277 278 280 282 281 280 278 278 278 278 281 279 284 285 286 288 289 289
283 283 283 282 282 282 281 281 281 280 278 278 277 276 276 276 276 277 276 276 274 275 276 278 280 280 280 278 277 278 279 280 283 284 285 285 288 289
283 281 280 280 279 278 278 278 278 277 277 275 275 275 274 274 274 274 274 274 273 274 274 276 276 276 276 278 280 278 280 281 282 281 281 284 285 288
280 279 278 277 277 277 276 276 275 275 275 274 274 273 272 272 272 271 272 272 272 272 273 274 274 273 271 270 277 280 276 276 276 277 277 285 285 286
277 277 276 276 275 275 274 274 273 273 273 272 272 271 271 270 270 269 270 270 270 270 270 271 272 273 270 269 270 274 276 275 276 276 277 285 285 283
275 274 275 274 274 273 273 272 272 271 271 271 270 270 270 269 268 269 269 268 269 268 268 269 271 273 274 274 271 272 276 279 279 277 277 278 282 282
273 273 273 273 272 272 272 271 271 270 270 269 269 269 269 269 268 268 268 268 268 269 269 270 272 272 272 270 270 271 273 277 279 278 279 282 284 280
271 271 271 271 271 271 270 270 269 269 269 268 268 268 268 267 268 268 268 268 268 268 268 269 270 271 270 270 270 271 271 273 275 275 280 282 282 282

GFSNE_sfc_thetae_090.txt.gz
Theta_e
322 322 321 320 319 319 318 316 312 307 307 309 312 313 313 311 310 308 306 303 302 302 302 303 305 306 306 307 307 307 307 307 308 308 308 308 308 308
323 322 321 321 321 321 319 317 315 313 309 309 310 310 310 312 311 308 306 306 301 300 300 300 301 303 303 304 304 304 304 303 304 304 304 304 305 305
322 320 320 321 320 319 319 319 316 314 311 313 310 310 308 308 309 305 306 304 302 299 298 298 298 298 299 299 299 300 300 300 300 301 301 301 302 302
319 319 319 320 319 319 318 316 314 314 312 309 309 306 307 305 305 303 304 305 304 300 299 299 297 296 296 296 295 295 295 296 295 296 295 295 295 295
319 318 318 318 317 318 315 314 313 311 310 308 303 296 296 297 297 298 299 299 301 302 299 297 296 297 296 295 295 294 294 294 294 293 293 293 292 293
319 319 318 316 314 313 313 313 311 307 304 300 295 293 294 295 295 294 293 297 297 300 300 296 296 295 295 294 293 293 293 293 292 292 292 291 291 290
316 314 304 299 298 304 310 307 303 301 296 294 291 290 289 289 290 291 290 290 292 294 293 294 293 292 290 293 293 294 293 293 293 293 292 291 290 290
302 294 293 292 291 291 291 290 293 295 291 289 287 287 287 289 289 288 288 287 285 293 291 289 289 287 289 290 292 292 293 293 293 293 292 291 290 290
293 291 289 289 289 288 288 287 286 286 285 289 287 286 285 286 286 285 285 286 285 289 287 285 287 287 289 291 292 292 293 292 292 291 290 290 290 289
290 288 287 286 287 286 285 284 284 284 284 285 284 284 284 285 286 286 285 284 284 285 287 281 283 283 285 287 292 291 291 291 291 291 290 290 289 289
287 287 286 285 286 287 284 283 282 282 284 285 284 283 282 282 282 281 280 280 278 280 284 282 281 281 281 282 285 289 289 289 289 290 291 290 290 289
283 283 284 284 285 285 283 283 281 282 282 283 282 282 282 283 282 281 280 279 278 276 281 278 279 279 277 280 281 281 281 285 288 288 288 288 288 287
282 281 282 284 283 283 282 280 280 282 282 281 282 282 283 283 282 282 282 279 277 276 281 279 277 276 276 276 278 279 280 280 281 283 287 288 288 289
281 281 281 283 281 281 280 281 282 282 281 281 280 280 279 279 279 279 279 279 279 278 279 279 275 276 275 274 273 277 278 279 280 281 282 285 286 288
282 282 282 282 281 280 280 281 281 280 278 276 277 277 277 277 278 278 279 279 279 279 280 279 278 277 276 275 274 275 275 277 279 279 281 282 283 285
281 282 281 281 281 279 280 281 280 278 277 276 275 275 276 276 275 276 275 275 274 274 277 278 278 278 276 277 276 275 276 274 277 278 279 280 281 283
281 281 281 281 280 279 279 279 278 277 275 274 273 273 274 273 273 274 273 272 270 270 271 274 276 277 276 276 273 274 274 274 276 277 279 278 279 282
281 279 277 277 276 276 276 275 275 274 273 273 272 272 271 270 270 271 271 269 268 269 270 271 272 271 271 273 276 273 274 274 273 274 275 274 274 277
277 276 275 275 274 274 274 273 272 272 273 271 270 269 269 269 268 268 268 268 268 268 268 269 269 268 267 266 270 275 270 271 272 272 274 274 275 277
275 273 273 273 272 272 271 271 270 270 269 268 267 266 264 267 266 267 267 265 266 267 267 269 268 269 266 265 266 269 275 272 272 272 273 276 277 279
272 272 272 271 270 270 269 268 266 264 264 263 265 264 261 265 265 266 265 264 265 266 266 266 269 271 271 271 266 267 270 275 275 273 273 273 273 274
270 270 270 270 268 268 265 264 264 264 264 264 261 260 260 263 263 264 264 264 265 266 266 268 269 270 269 268 266 266 268 270 274 276 278 276 274 274
268 268 268 267 266 265 267 265 263 260 263 262 263 263 259 260 264 264 264 265 265 265 265 266 268 268 267 267 267 267 267 268 270 271 274 278 280 281

GFSNE_sfc_thetae_096.txt.gz
Theta_e
315 316 315 316 314 314 312 311 307 301 302 307 309 314 313 313 312 313 313 309 305 304 304 306 308 310 311 312 312 313 314 314 314 313 313 312 311 311
316 315 315 314 314 314 314 312 310 310 305 309 310 312 311 312 314 313 312 309 304 303 303 302 304 307 308 308 309 309 309 310 310 309 307 307 307 307
315 315 315 316 315 314 313 314 313 312 309 312 310 309 308 307 309 310 311 310 309 301 301 301 301 301 302 303 303 304 305 305 304 303 303 304 304 304
316 316 316 315 313 315 315 314 314 314 312 310 308 306 305 306 304 306 308 309 307 304 300 299 299 298 298 298 299 299 300 300 299 299 299 298 298 298
316 315 315 313 314 315 314 315 314 314 311 312 312 301 298 298 298 299 299 300 302 301 298 298 298 298 298 297 297 297 297 296 295 295 294 294 294 294
317 316 316 315 314 314 314 314 314 312 312 312 309 296 295 295 296 295 294 295 295 298 297 295 295 296 296 296 295 295 296 295 295 294 293 292 292 293
314 314 311 306 297 300 311 314 311 311 311 301 293 291 290 290 290 291 289 290 292 293 294 293 294 292 292 293 293 294 294 294 294 294 293 292 292 292
312 297 294 293 291 290 291 291 293 301 296 292 290 288 287 287 287 287 287 286 286 292 289 288 291 290 291 291 292 293 292 292 293 293 292 292 292 292
305 295 292 290 290 289 288 288 288 287 286 291 287 285 285 285 286 285 285 285 284 287 284 281 285 284 285 286 287 289 287 287 286 286 287 287 287 287
294 293 291 289 289 288 287 285 285 285 286 286 286 285 285 286 285 284 281 280 281 281 280 276 278 278 281 282 285 286 285 284 284 284 284 284 285 286
288 288 288 287 288 289 284 282 281 282 285 285 285 285 285 284 283 281 279 279 278 279 278 276 277 276 277 278 279 283 283 282 282 283 283 283 283 283
284 285 285 285 285 285 283 282 280 281 282 282 281 281 281 281 281 279 278 276 276 275 277 275 275 275 272 276 277 278 278 280 281 282 282 282 282 280
283 283 284 285 284 284 283 282 281 282 281 280 279 279 279 278 278 279 278 277 275 274 277 275 274 273 272 273 275 276 276 277 277 278 280 281 281 280
280 281 283 284 284 283 282 282 282 281 280 278 277 276 276 275 276 276 276 276 276 275 275 275 270 272 271 270 270 274 274 274 275 275 277 278 279 278
282 283 283 283 282 281 281 281 279 278 276 275 274 274 274 275 274 274 275 274 274 274 274 275 273 272 270 268 268 269 270 272 274 273 274 273 272 273
281 280 280 280 279 279 277 277 277 276 275 274 273 273 273 273 271 272 270 271 270 270 273 273 272 271 268 269 270 269 271 268 270 271 271 272 273 274
280 280 278 277 276 275 275 275 275 274 273 273 272 271 270 270 270 270 270 269 267 267 267 270 271 272 271 271 268 269 268 268 270 270 270 270 271 273
278 276 274 274 273 273 272 272 272 271 271 270 270 269 268 268 268 268 268 266 265 266 266 267 268 267 268 269 271 268 268 268 269 270 270 268 268 271
273 272 271 271 271 271 271 270 269 270 270 269 267 267 267 267 266 266 265 265 264 265 265 267 266 265 262 260 267 272 267 268 268 267 268 268 267 269
271 270 270 269 270 269 269 268 268 267 267 266 264 263 262 264 263 263 263 258 262 264 265 266 265 265 263 262 263 266 271 267 267 267 267 269 271 274
269 269 269 268 267 267 266 264 260 260 260 259 260 261 255 260 259 261 261 261 260 264 263 263 265 268 267 266 262 263 266 271 271 268 268 268 268 269
267 267 266 266 265 264 262 260 261 260 259 260 252 251 250 255 257 258 256 257 261 262 263 264 266 266 264 264 262 262 264 267 270 272 273 273 270 267
264 264 264 263 262 259 261 258 258 253 257 256 257 256 249 254 258 257 256 259 261 261 262 262 263 264 264 264 263 263 263 264 266 267 269 274 276 276

GFSNE_sfc_thetae_102.txt.gz
Theta_e
310 311 312 312 313 313 312 311 309 304 305 309 310 312 311 311 310 311 311 309 305 304 304 305 308 310 311 312 314 315 317 318 319 318 319 320 320 320
313 312 312 313 313 313 313 312 310 309 305 309 310 313 313 312 312 312 311 307 304 302 301 302 303 305 307 308 309 310 311 312 313 315 316 317 317 316
313 313 313 314 313 312 313 313 312 311 308 312 311 311 311 312 312 311 311 310 310 303 301 300 300 300 301 302 303 304 305 307 308 307 305 305 305 306
313 313 313 314 313 313 312 312 312 312 311 309 311 309 308 307 307 307 306 308 308 300 299 299 299 298 298 298 298 298 299 299 298 297 297 297 297 297
313 313 313 313 313 313 313 312 312 312 311 311 311 307 305 302 302 302 302 302 301 299 296 296 296 296 296 295 295 295 295 295 294 294 294 294 294 295
312 312 313 313 313 313 313 313 312 310 310 310 310 310 305 300 300 299 296 296 295 297 296 294 294 294 293 292 292 292 293 292 291 290 289 288 288 289
312 312 313 311 306 309 313 312 312 310 310 309 309 309 300 294 295 295 293 290 289 290 292 292 292 291 287 288 289 290 289 288 287 286 286 286 286 286
310 310 311 304 302 294 292 290 292 308 310 309 309 301 295 290 290 289 288 287 286 283 286 283 285 282 283 284 288 287 286 285 285 285 284 284 284 284
310 308 302 297 294 290 288 287 286 286 284 295 299 288 286 287 287 286 285 285 281 280 283 280 281 280 282 283 286 285 283 283 283 283 283 282 282 283
307 307 304 297 293 290 286 284 284 283 284 284 283 282 282 284 284 284 282 280 280 279 280 278 279 278 280 282 283 282 282 282 281 280 280 280 280 281
296 297 301 294 290 290 285 282 282 282 285 285 284 284 283 283 284 283 281 280 279 276 276 277 277 276 278 279 279 280 279 279 279 278 279 279 280 280
286 287 289 289 288 286 284 282 279 279 279 278 278 278 279 279 278 278 279 277 277 275 275 275 274 274 272 277 277 277 276 276 276 277 277 278 278 277
284 284 285 285 286 285 284 282 280 279 278 277 276 276 275 275 275 276 276 276 275 272 275 274 273 273 272 272 273 275 274 274 274 275 276 276 277 276
283 284 284 285 284 283 282 282 280 278 277 275 274 273 273 273 274 274 275 275 275 273 274 273 271 270 269 268 268 272 272 273 274 273 274 274 274 275
283 283 283 282 281 280 280 279 277 276 274 272 271 271 272 273 273 273 274 274 273 273 273 273 272 271 270 268 268 269 269 271 273 273 272 272 272 273
277 277 277 277 276 275 275 275 275 274 273 271 271 271 272 271 270 271 270 271 270 269 272 272 272 271 268 269 269 268 269 268 271 272 272 272 272 273
277 276 275 274 273 273 273 273 273 273 271 271 270 270 269 269 268 269 268 268 266 266 267 269 270 270 270 269 267 268 268 269 270 270 269 269 271 272
275 273 272 271 271 271 270 270 271 270 270 270 269 269 268 267 267 267 267 266 265 265 266 267 267 267 267 268 271 268 268 268 269 269 269 268 268 271
272 271 270 270 270 270 270 269 268 268 269 268 267 267 267 266 265 265 264 264 264 265 265 266 266 264 262 260 266 270 268 267 268 267 268 268 267 269
270 269 269 269 269 269 268 268 267 266 266 265 263 263 264 264 263 263 263 261 262 264 264 265 265 264 262 261 262 266 270 268 267 266 267 269 270 272
268 267 267 267 267 266 265 264 263 262 262 261 260 260 259 262 261 261 261 259 260 263 262 263 264 266 266 266 262 263 266 270 269 268 268 267 268 269
266 266 266 265 265 264 263 262 261 261 260 260 256 256 257 260 259 258 258 259 261 261 262 263 264 264 264 263 262 262 264 266 268 271 273 272 269 267
263 263 263 263 263 262 262 260 259 258 259 259 259 258 254 257 258 259 259 259 260 260 261 261 262 263 262 262 261 262 262 263 265 268 271 275 279 277

GFSNE_sfc_thetae_108.txt.gz
Theta_e
318 319 320 319 321 318 319 321 314 310 312 319 319 323 325 325 322 323 323 314 305 304 304 306 308 310 310 311 312 313 315 316 317 317 317 318 318 319
318 317 316 320 320 322 322 320 320 315 310 316 317 323 325 322 321 323 325 314 306 303 302 302 303 306 307 307 308 309 309 310 311 312 312 312 310 309
315 314 314 315 316 316 318 318 318 317 313 314 321 323 320 322 323 325 323 325 318 301 302 301 300 301 301 301 302 303 303 303 302 302 302 302 302 303
314 313 312 313 314 314 318 315 318 319 313 309 314 317 317 317 322 320 321 318 317 299 298 297 297 296 296 297 297 296 295 295 294 294 294 294 295 296
313 313 312 312 312 312 314 316 318 315 313 311 311 315 321 320 314 315 316 310 301 297 295 294 294 294 294 294 294 292 291 290 289 288 288 288 289 290
313 312 313 313 313 313 313 314 315 313 313 312 311 312 314 316 314 311 303 302 298 297 292 290 291 292 291 290 290 289 289 288 287 287 286 285 285 286
313 312 313 311 305 308 311 312 313 313 311 310 310 311 312 308 307 311 306 292 289 292 288 286 287 287 288 288 287 287 287 287 286 284 283 283 283 283
311 312 312 305 304 299 298 297 304 311 310 309 308 308 309 307 303 302 293 289 286 287 286 283 285 284 286 286 285 285 285 284 283 282 282 282 282 282
312 312 310 308 305 306 292 290 288 287 288 305 308 308 303 301 296 293 290 288 283 281 283 279 283 281 284 285 284 283 282 281 280 280 280 281 281 281
312 312 311 309 306 299 294 289 287 287 288 288 288 286 286 288 292 291 287 280 280 279 282 278 281 280 283 284 282 281 281 280 280 280 280 280 280 280
317 317 316 314 301 294 292 285 283 283 285 285 284 284 283 284 286 285 282 281 277 276 278 280 278 280 281 284 284 281 279 279 279 279 279 279 279 279
292 292 288 300 292 290 291 285 281 279 279 278 278 279 280 280 280 281 283 278 277 275 277 279 280 280 279 282 283 281 281 280 279 279 279 279 279 280
286 285 286 287 287 287 286 282 278 278 277 276 276 276 276 276 277 277 278 280 277 274 276 280 277 278 277 276 279 280 279 281 281 281 280 280 279 279
284 284 284 285 284 283 281 281 280 278 276 275 275 274 274 275 276 276 277 276 278 277 278 279 276 276 276 276 276 278 279 280 281 280 281 281 280 280
283 282 282 282 281 280 279 279 278 277 276 275 274 273 275 276 276 276 276 276 276 276 276 276 276 275 275 275 275 277 277 278 280 280 280 280 280 281
278 277 277 278 278 278 278 278 279 279 277 275 275 275 276 275 275 276 274 274 273 273 275 275 276 276 277 277 277 277 277 276 279 279 279 280 281 282
281 282 281 280 281 280 279 279 279 279 278 277 276 276 275 275 274 274 274 275 274 274 274 276 277 277 277 275 277 277 277 277 278 278 278 278 280 282
284 282 281 281 280 279 278 278 278 277 277 277 276 276 275 275 275 275 276 276 274 274 274 275 276 277 278 277 275 276 276 276 277 278 279 277 278 282
281 280 279 279 279 278 277 277 276 276 276 276 276 276 275 274 275 275 275 275 274 275 275 276 275 275 274 274 277 273 274 275 276 277 277 277 278 280
280 279 278 278 278 277 276 275 275 275 275 275 275 275 275 275 275 274 274 274 275 275 275 276 275 273 272 272 271 276 276 275 275 275 276 278 279 279
277 277 277 276 276 276 275 275 275 274 274 274 274 274 274 274 273 273 271 269 272 274 274 273 273 269 274 276 274 275 276 276 275 274 275 275 276 280
276 275 275 275 275 275 274 274 274 273 273 273 273 273 274 274 273 272 273 274 273 273 273 274 274 274 274 272 272 272 275 277 278 278 277 276 277 279
275 275 275 274 275 274 274 274 273 273 272 272 272 272 273 273 273 273 273 273 271 272 272 272 273 274 273 273 271 273 273 275 277 278 281 279 278 277

GFSNE_sfc_thetae_111.txt.gz
Theta_e
318 318 317 318 319 320 319 319 316 310 311 319 319 322 323 324 321 324 326 312 306 305 305 306 308 310 311 311 312 313 314 315 315 316 316 316 317 317
318 316 317 317 318 318 317 317 321 317 311 317 318 325 326 323 322 326 325 315 305 303 302 302 303 306 307 307 308 308 309 309 309 310 310 309 309 307
317 316 316 316 316 317 317 318 314 317 312 316 319 325 323 322 320 325 324 325 310 301 302 301 301 301 301 301 301 302 301 301 302 302 302 302 302 301
315 315 315 314 313 315 314 314 316 316 316 314 318 320 320 320 317 317 320 320 307 297 296 296 296 296 296 296 295 294 293 293 293 293 293 293 294 294
315 314 314 313 312 312 313 313 315 316 315 311 314 319 319 318 314 314 310 304 297 295 294 294 295 295 294 293 292 291 291 290 289 288 287 287 288 288
314 314 313 313 312 312 312 312 312 312 312 312 314 314 311 314 313 312 305 301 297 293 292 292 292 292 291 291 290 290 289 288 286 285 284 284 284 284
312 313 313 311 305 309 312 312 312 311 311 311 312 311 309 311 307 309 306 291 291 290 288 287 288 288 288 288 288 288 286 285 284 283 283 282 282 283
310 311 312 304 304 300 301 301 308 310 309 309 309 306 309 307 308 307 295 289 287 289 286 283 286 285 285 286 286 285 284 283 282 282 282 282 282 282
311 311 310 311 306 310 294 292 289 288 288 306 309 307 305 301 305 298 292 290 286 283 284 280 284 283 285 285 284 283 282 281 281 281 281 281 281 281
313 313 312 310 309 305 296 288 286 286 287 288 286 285 286 289 290 289 286 280 281 280 283 278 282 280 283 283 283 282 281 281 280 280 280 280 280 280
312 313 312 311 300 297 292 285 283 282 285 285 284 284 284 285 286 286 283 282 278 277 278 279 279 280 281 282 282 282 280 280 280 280 280 280 280 281
290 288 288 296 293 292 290 286 281 279 279 279 279 279 280 280 281 283 284 279 277 276 278 279 278 280 279 283 283 282 282 281 280 281 280 281 281 280
286 285 286 288 288 288 287 284 280 279 278 277 277 277 277 277 277 278 279 280 277 276 278 280 279 277 278 277 279 281 281 282 281 281 282 282 282 281
284 284 285 286 285 284 282 281 280 278 277 277 276 276 276 276 277 277 278 279 279 278 280 281 277 278 277 276 276 279 280 281 281 280 281 282 282 282
282 282 282 282 281 280 280 280 279 278 277 276 275 276 277 277 278 278 278 278 277 278 278 279 278 277 277 276 276 277 277 279 280 281 281 280 280 282
279 279 279 279 279 279 280 280 279 279 279 277 277 278 279 278 277 278 277 277 276 275 277 277 277 277 278 278 277 277 278 276 279 280 279 280 282 283
282 282 281 280 279 279 280 280 280 280 279 280 279 277 277 277 277 278 278 278 277 276 276 278 279 278 278 277 277 278 277 278 279 279 279 279 281 283
284 283 282 282 281 280 279 279 280 279 279 279 278 278 277 277 277 278 279 278 277 276 276 277 278 279 279 278 277 277 277 277 278 279 279 277 278 282
282 282 281 281 280 280 279 279 277 278 279 279 278 278 277 277 278 277 277 277 276 276 276 277 277 276 275 275 277 274 275 276 276 277 278 277 277 280
281 281 280 280 279 278 278 278 278 278 278 278 278 278 278 277 277 276 276 276 276 276 276 276 276 274 273 272 273 276 278 276 275 275 275 277 279 281
279 278 279 278 278 278 278 277 277 277 277 277 276 276 277 276 275 274 272 272 272 275 274 274 275 271 275 277 275 275 277 279 277 276 276 275 276 279
278 277 277 277 277 277 276 276 276 276 275 276 276 276 276 276 274 274 274 275 274 274 274 275 276 276 275 274 273 273 276 278 280 280 279 278 277 277
277 277 277 277 277 277 276 276 275 275 275 274 274 274 275 274 274 274 274 273 272 273 273 273 275 276 275 275 273 274 275 276 277 277 280 281 280 279

GFSNE_sfc_thetae_114.txt.gz
Theta_e
317 318 317 318 319 318 317 316 311 304 306 311 312 319 319 319 317 317 318 308 305 305 305 307 309 310 311 312 312 313 313 313 314 314 314 314 314 313
317 317 317 317 317 317 316 315 315 310 305 313 314 317 319 320 318 319 320 307 303 302 302 302 303 305 306 307 307 308 308 308 308 309 309 309 308 307
316 316 316 316 316 316 316 314 313 313 308 312 315 318 318 318 318 320 319 309 303 301 300 300 301 301 301 301 301 303 303 303 303 303 303 302 301 301
315 316 315 316 315 316 315 313 313 313 310 309 312 314 315 316 315 314 317 307 300 297 297 297 297 296 296 295 295 295 295 294 294 294 294 294 294 294
316 315 315 315 314 314 314 312 311 313 312 310 309 311 313 314 313 311 301 296 296 296 295 295 295 295 294 293 293 292 291 289 288 287 287 287 287 287
315 316 315 314 312 312 313 312 311 311 310 310 309 310 310 312 311 307 301 296 294 294 294 293 293 293 292 291 291 290 289 287 286 285 284 284 283 284
313 314 314 312 306 309 312 311 311 310 309 308 307 308 307 307 307 308 302 293 290 290 289 289 289 288 289 289 289 288 286 285 284 283 283 283 283 283
310 311 310 304 303 300 301 302 307 309 308 308 307 304 307 306 306 304 294 289 288 289 286 284 287 285 285 286 287 285 284 283 283 282 282 282 282 282
310 310 309 308 304 307 294 291 289 289 291 308 307 304 303 303 303 301 295 290 287 284 284 281 284 283 285 285 285 284 283 281 281 281 281 281 281 281
310 310 310 307 307 303 294 287 286 286 287 287 287 285 286 289 290 288 286 281 282 281 284 279 282 281 282 283 285 284 282 281 280 281 280 280 281 281
307 297 306 308 298 296 291 286 283 283 286 286 285 285 285 286 287 287 284 283 279 278 279 279 280 280 282 281 283 283 282 281 281 281 281 281 281 282
288 288 288 296 292 291 291 286 282 280 280 279 279 279 280 281 281 282 285 282 278 277 278 278 279 279 278 282 283 282 281 283 282 282 282 282 282 280
285 285 286 287 289 288 289 287 281 279 278 278 278 278 278 278 278 279 280 281 277 276 279 280 278 278 278 277 280 281 281 280 279 280 282 282 282 281
283 284 284 285 285 284 283 282 281 279 279 277 276 275 275 275 276 277 278 278 279 278 280 280 278 278 277 276 275 277 278 278 278 277 278 281 281 282
282 282 282 282 282 281 281 281 279 278 277 275 274 274 275 277 277 277 277 277 277 278 278 279 277 276 277 275 274 275 275 276 277 276 277 277 277 278
279 280 280 280 279 279 279 280 279 278 277 276 276 277 278 277 276 276 275 275 274 273 276 277 276 276 274 275 275 274 274 272 275 276 276 277 278 279
281 281 280 280 279 279 279 279 279 279 278 278 277 276 275 275 274 275 275 274 272 272 273 276 276 276 275 275 273 274 273 273 273 275 276 275 277 280
282 280 279 279 278 278 278 277 278 277 277 277 275 276 275 274 274 275 275 273 272 272 272 274 274 274 276 276 277 273 272 272 274 276 277 274 274 278
279 279 278 278 277 277 276 275 275 276 277 276 275 273 273 274 274 274 273 274 273 272 272 273 273 271 269 266 274 276 271 273 272 271 274 273 272 275
278 277 276 276 276 275 275 275 275 275 275 275 273 272 270 272 271 272 272 268 270 273 273 273 271 270 266 264 264 271 279 272 270 268 269 273 275 279
276 275 275 275 274 274 273 273 272 272 272 271 271 271 269 270 269 269 267 267 267 273 272 271 271 271 272 271 264 267 271 279 276 271 270 270 271 273
275 274 275 274 273 272 270 269 269 270 270 270 268 267 267 268 267 268 267 267 270 269 271 272 274 273 272 272 268 264 270 272 277 280 281 278 271 270
273 273 273 273 273 272 272 271 270 268 269 268 268 267 266 266 268 268 267 268 268 269 270 269 272 272 272 273 269 268 268 268 272 272 274 281 281 280

GFSNE_sfc_thetae_117.txt.gz
Theta_e
317 317 318 318 318 318 316 314 311 306 308 310 311 316 317 318 317 314 315 308 305 305 306 308 310 311 311 312 313 313 313 314 314 313 313 313 313 312
317 316 317 318 318 317 316 315 314 310 307 312 313 315 317 318 314 316 309 305 303 303 302 303 305 307 308 308 308 308 309 309 310 310 311 310 308 310
316 316 316 317 317 316 316 314 313 312 308 311 314 316 315 316 316 314 310 306 303 301 301 303 302 302 303 303 304 305 306 306 306 306 305 304 303 302
315 316 315 316 316 316 316 314 313 312 310 309 311 313 314 315 315 312 307 303 301 298 299 299 298 298 298 298 298 298 298 298 297 297 296 296 295 294
315 315 315 315 314 315 314 313 313 313 312 309 309 311 312 314 309 303 297 296 297 297 296 295 296 295 295 295 294 293 292 290 289 288 288 288 288 288
316 316 316 315 315 314 313 313 312 312 311 309 308 309 309 311 310 303 298 295 293 295 294 293 294 294 293 292 291 290 289 288 287 286 285 284 284 285
314 315 316 314 307 311 314 314 312 311 310 309 307 306 306 306 307 306 300 292 289 291 290 290 290 290 290 290 289 288 286 285 285 284 284 283 283 283
311 311 311 305 304 300 301 302 310 311 309 307 306 304 305 306 305 305 293 290 289 290 287 285 287 285 285 286 286 285 284 284 284 283 282 282 282 282
310 310 308 308 305 306 292 291 290 290 294 308 305 304 303 304 304 301 295 291 288 286 285 281 284 283 285 285 285 285 283 282 282 282 281 281 281 282
310 310 309 306 306 298 292 288 286 286 288 289 291 287 287 289 291 291 289 282 283 282 285 279 282 281 283 284 286 285 283 281 281 281 281 281 281 282
301 298 308 307 295 295 290 285 283 283 286 287 286 286 286 287 288 288 285 285 280 279 281 281 280 280 281 282 284 284 282 282 282 282 281 281 282 282
287 287 287 296 291 291 290 287 283 281 280 280 280 280 281 282 282 283 286 285 280 278 279 278 279 280 278 282 282 282 281 283 283 283 282 282 282 279
285 285 285 288 289 289 290 288 283 280 279 279 278 278 278 278 278 279 280 283 279 277 279 281 278 278 279 278 279 281 281 280 279 279 282 282 282 281
282 283 285 286 285 284 283 283 282 280 279 278 276 276 275 276 276 278 279 279 280 279 281 281 279 278 277 275 275 277 277 277 277 277 277 279 281 282
282 283 283 283 282 282 282 281 280 279 277 276 275 275 275 276 277 277 277 277 277 278 278 278 277 277 275 273 273 273 273 275 276 276 276 276 276 277
280 280 280 280 280 279 279 279 279 278 277 276 276 277 278 277 276 276 274 274 273 273 277 277 277 276 273 274 274 273 274 271 274 275 275 276 277 278
281 280 279 279 278 278 278 278 278 278 277 277 276 276 276 276 275 275 275 274 272 272 272 275 276 276 275 275 272 273 273 273 272 274 275 274 276 279
280 278 278 277 277 277 276 276 277 277 277 276 276 276 275 274 274 275 274 273 272 272 272 273 272 273 275 275 277 272 271 270 272 274 275 271 273 276
277 277 276 275 275 275 275 275 274 275 276 274 274 273 273 274 274 273 272 272 271 271 271 271 271 268 267 264 273 277 268 271 271 269 272 271 270 274
276 275 274 274 274 274 274 274 274 273 273 273 271 270 270 271 270 270 270 266 269 272 271 271 269 269 264 263 262 268 278 271 269 267 268 271 274 278
274 273 273 273 272 272 272 271 271 268 269 269 269 269 266 269 267 267 267 266 268 271 270 269 270 270 271 269 262 264 270 278 276 270 268 266 268 271
274 273 273 272 271 270 268 268 269 269 269 269 265 264 263 267 265 266 265 266 268 268 269 271 273 272 270 271 266 260 267 270 275 279 280 278 272 267
271 271 271 270 271 270 270 268 267 266 266 265 265 266 263 264 266 266 266 266 267 267 268 267 270 271 270 272 268 266 266 265 270 270 270 278 279 281

GFSNE_sfc_thetae_120.txt.gz
Theta_e
319 318 317 318 318 318 317 317 313 307 308 311 312 317 318 317 315 314 316 308 305 305 306 307 310 312 312 314 315 315 316 316 315 315 315 315 314 314
318 317 317 318 318 317 316 316 315 311 308 312 312 315 318 318 315 316 313 307 303 303 302 303 305 308 309 309 310 310 311 312 312 312 312 313 312 312
316 316 316 318 317 317 316 315 313 312 309 311 314 315 313 314 311 310 309 306 303 301 301 301 302 304 306 305 305 306 307 308 310 310 308 308 307 305
315 315 315 316 316 316 315 314 314 313 310 309 311 312 312 314 311 308 306 305 302 302 301 300 300 300 299 299 299 298 298 298 298 299 299 298 297 296
316 315 315 315 315 315 314 313 314 313 311 309 309 310 311 311 302 300 297 298 298 297 296 296 296 296 296 295 294 293 292 291 290 290 289 289 289 289
316 316 316 316 315 315 314 313 313 312 311 309 308 308 309 310 307 299 296 295 293 294 294 294 294 294 293 292 292 291 290 289 288 287 285 285 285 285
315 315 316 314 308 311 314 313 313 312 310 309 306 306 306 307 306 304 297 291 290 291 290 291 291 290 290 290 290 289 288 287 286 285 284 284 283 283
313 314 314 306 305 300 301 302 309 312 310 309 308 306 305 307 306 304 292 290 289 290 287 285 287 285 285 286 287 286 286 285 285 284 283 283 282 282
311 311 309 310 306 307 292 292 291 292 296 311 309 308 304 305 305 301 295 292 291 288 286 282 284 283 285 286 286 285 284 284 283 283 282 282 281 282
310 310 309 306 303 298 292 288 287 287 289 292 300 290 291 294 301 299 293 284 284 284 285 280 282 282 283 285 286 285 283 283 282 282 281 281 281 282
301 297 308 306 293 294 290 285 284 284 287 288 287 287 287 288 289 290 286 287 281 281 282 281 281 280 282 282 284 285 282 282 282 283 282 282 282 282
288 289 288 299 290 290 291 288 284 281 281 281 281 281 282 283 283 286 289 287 281 279 281 280 280 280 277 281 282 282 282 283 283 283 284 282 282 278
285 285 286 289 290 290 290 289 285 281 280 280 279 279 279 279 279 281 282 285 282 279 281 281 279 279 279 278 280 280 280 281 281 279 282 282 282 280
283 284 285 287 286 286 284 283 282 281 280 279 278 276 276 276 277 278 279 280 281 281 282 282 279 279 277 276 275 279 278 277 276 276 276 279 280 281
283 284 284 284 283 283 283 282 281 280 279 277 275 275 276 276 277 277 278 278 278 279 279 280 280 279 276 274 272 273 273 275 276 275 275 275 276 276
280 280 280 280 279 279 279 279 279 279 278 276 276 276 277 277 275 276 275 275 275 274 277 278 277 277 274 274 274 272 273 270 273 274 275 276 277 277
281 280 279 279 278 278 278 278 278 278 277 277 276 276 276 275 275 276 275 274 273 272 272 275 276 277 276 275 272 272 272 272 271 273 274 273 275 276
279 277 277 277 276 276 276 276 277 277 277 277 276 276 275 275 274 274 274 273 272 272 271 272 272 273 274 275 277 272 270 269 271 274 274 270 272 275
276 275 275 275 275 276 275 275 274 275 276 276 275 274 274 274 274 273 272 272 271 270 270 270 270 268 266 264 272 277 268 270 270 269 271 270 269 273
275 274 274 274 275 274 274 274 274 273 273 273 272 272 272 272 271 270 269 267 270 270 270 270 269 268 265 263 262 267 277 270 268 266 267 270 273 277
273 273 273 273 273 273 272 272 271 270 270 270 269 269 266 269 268 268 268 267 268 270 269 268 269 269 270 268 262 263 269 277 275 269 268 265 267 270
273 272 272 272 271 271 270 270 270 270 269 268 265 265 265 267 266 265 265 267 267 267 268 270 272 271 270 270 265 259 266 268 274 278 277 275 268 267
270 270 270 270 270 269 269 268 266 265 266 266 267 265 265 265 266 265 265 266 266 266 267 266 268 269 269 270 267 265 264 264 269 269 269 276 277 277

GFSNE_sfc_thetae_123.txt.gz
Theta_e
320 319 319 319 319 319 318 317 314 307 309 312 313 318 319 319 316 316 316 308 305 305 305 307 311 313 314 315 317 318 319 320 319 318 318 317 316 316
319 318 318 319 317 318 317 317 317 313 309 312 313 316 318 318 315 316 315 308 304 303 303 304 306 309 310 311 311 312 313 313 314 314 314 313 314 314
318 317 317 318 317 317 317 316 313 314 310 310 314 314 314 316 311 310 309 307 303 301 301 301 302 303 304 305 306 307 308 309 310 311 312 312 310 307
316 316 316 317 316 317 316 315 314 313 311 309 311 312 312 311 309 308 306 305 304 301 302 300 300 300 299 299 299 299 300 301 302 303 303 302 300 299
317 316 316 316 315 316 316 315 315 314 312 311 309 310 311 306 300 300 298 297 298 298 298 298 298 297 296 296 296 295 294 293 293 292 292 292 292 292
316 316 316 315 315 315 314 314 313 312 312 311 309 309 309 307 304 297 294 295 292 295 295 294 294 295 294 293 293 292 291 291 289 288 287 287 287 287
315 315 316 314 307 311 314 313 312 312 311 309 309 306 307 305 303 301 295 291 290 291 291 291 291 290 291 291 291 291 290 289 288 286 285 285 284 284
313 313 314 306 305 300 302 302 309 311 310 309 309 308 308 309 305 301 292 290 289 291 287 285 288 285 286 286 289 288 288 287 286 285 285 284 283 282
313 313 312 311 306 309 295 296 292 294 296 311 308 308 306 309 307 299 295 293 291 288 287 283 285 283 286 287 287 287 286 285 284 284 283 282 282 282
312 312 311 309 308 300 295 289 287 288 290 296 307 298 300 305 308 304 296 285 285 285 286 281 283 282 284 285 286 285 285 284 283 283 282 282 282 282
305 305 309 306 293 295 291 286 285 284 288 288 288 288 288 289 293 295 289 289 283 283 283 282 281 281 282 283 285 285 284 283 283 282 282 282 282 282
290 290 288 299 290 290 291 289 285 283 283 284 283 283 284 285 285 287 293 291 281 280 283 280 280 280 277 281 282 283 282 283 283 283 284 283 283 279
287 286 286 289 290 290 291 290 287 283 281 281 281 280 280 280 280 282 283 287 285 281 282 282 280 280 279 278 280 280 281 281 281 280 282 282 282 280
284 285 286 288 287 287 285 284 283 282 282 280 279 277 277 277 278 279 281 282 283 283 283 283 281 280 278 277 276 279 279 279 277 277 276 278 280 281
284 285 285 285 284 283 283 283 282 281 280 278 276 275 276 277 278 279 279 279 279 279 281 282 281 281 279 277 275 275 274 275 276 275 275 275 275 276
280 280 280 280 280 279 279 280 279 280 278 277 276 276 277 276 276 277 277 277 276 275 278 279 279 278 275 275 275 273 273 271 273 273 274 275 277 277
281 280 279 279 278 278 278 278 278 278 277 277 276 275 275 276 275 276 276 276 274 273 274 276 277 277 276 276 272 272 272 271 271 272 273 272 275 275
279 277 276 276 276 276 276 276 277 277 277 276 276 276 275 275 274 275 275 274 272 272 272 272 273 274 274 275 277 271 270 269 271 273 273 270 271 274
276 275 275 275 275 275 275 275 275 276 277 276 276 275 275 275 274 274 273 272 271 270 270 271 272 271 268 265 271 277 268 269 269 268 270 270 268 272
274 273 273 274 274 274 274 274 274 274 274 274 273 273 273 273 272 271 271 270 270 271 271 271 270 269 266 265 264 267 276 269 267 266 267 268 271 276
273 272 273 273 272 272 271 271 271 270 271 270 270 270 270 271 269 270 270 269 270 271 269 269 269 270 270 268 263 264 269 276 274 268 267 263 266 269
271 271 271 271 271 271 271 271 270 270 269 268 267 266 267 268 268 268 268 268 268 268 269 269 271 271 270 269 264 259 265 267 273 277 277 274 266 264
268 268 268 268 269 268 269 268 267 267 268 268 267 267 266 267 267 267 266 267 267 266 267 266 268 268 268 269 265 264 263 264 267 267 267 275 275 277

GFSNE_sfc_thetae_126.txt.gz
Theta_e
322 321 320 320 320 319 319 318 314 308 309 313 314 320 320 319 317 316 318 308 305 305 306 308 312 314 315 316 317 319 320 321 321 321 321 319 318 317
321 320 319 319 319 319 319 318 317 314 309 313 314 317 319 319 316 318 316 310 304 303 303 304 307 310 311 312 312 313 315 316 316 316 316 316 315 315
320 319 319 319 318 317 318 317 316 316 312 311 314 316 318 318 315 315 312 309 306 302 301 301 302 304 305 306 306 308 309 310 311 312 313 313 314 312
319 318 318 317 317 317 317 316 315 316 314 309 312 312 314 316 312 309 306 305 304 303 302 300 301 301 301 301 301 302 303 304 305 306 307 306 304 303
319 318 317 316 315 317 316 315 315 314 314 312 310 311 308 306 300 300 298 297 299 300 299 299 301 299 299 298 298 297 297 296 295 295 295 295 295 295
318 318 317 316 316 316 316 315 315 314 313 311 310 311 308 305 303 297 294 295 293 295 295 295 296 296 296 295 295 295 293 292 291 290 289 289 289 289
317 316 316 314 308 311 315 315 314 313 311 311 309 307 306 302 301 300 295 291 290 292 291 291 292 292 292 293 293 292 291 290 289 288 287 286 286 286
314 315 315 306 305 300 302 303 310 312 310 310 309 308 307 305 303 300 292 290 289 291 288 285 288 286 287 288 291 290 289 289 288 287 286 285 284 284
314 314 313 312 306 310 298 297 297 298 298 312 309 309 308 307 305 297 296 293 291 289 288 283 285 284 286 288 289 288 288 287 286 285 285 284 283 283
314 314 313 311 311 307 299 293 290 290 294 298 308 304 306 309 306 303 299 286 286 286 287 282 284 282 285 286 288 287 286 286 285 284 284 283 283 282
312 312 313 310 297 297 295 289 286 285 289 290 289 289 289 293 298 296 291 291 285 285 285 283 281 281 283 283 285 286 285 285 284 284 283 283 282 283
293 294 295 304 291 292 294 291 288 284 285 285 286 285 286 286 286 291 297 295 285 283 285 282 281 281 278 282 283 284 283 284 284 284 284 284 283 282
290 287 287 290 290 291 292 292 289 285 284 284 283 282 282 282 283 285 286 292 286 284 284 283 281 280 280 278 280 281 282 282 282 283 282 282 282 281
286 286 287 289 288 287 286 285 285 284 284 282 281 279 278 278 279 281 282 283 284 284 284 284 282 281 279 277 276 280 280 281 281 279 279 280 280 281
285 286 286 286 285 284 284 284 284 284 282 279 276 275 276 278 280 280 281 280 279 280 282 283 283 281 280 278 276 277 277 277 278 278 278 278 279 280
281 280 280 280 280 280 280 281 281 281 279 277 275 276 278 278 278 279 278 278 277 276 279 280 281 280 277 278 278 276 276 275 276 277 277 278 279 280
281 281 279 279 278 278 278 278 279 279 277 277 276 276 276 276 276 277 277 277 275 275 274 276 278 278 278 277 275 275 275 275 276 276 276 275 277 278
279 277 276 276 276 276 276 276 277 277 277 277 277 276 275 275 275 276 276 275 274 274 274 275 276 276 276 276 278 274 274 274 275 276 276 274 274 277
275 275 274 275 275 275 275 275 275 276 277 276 276 275 275 275 275 274 274 274 273 273 273 274 275 274 272 270 273 278 274 274 274 274 274 274 273 276
273 273 272 273 273 273 274 274 274 274 274 274 274 275 275 274 273 273 273 272 272 272 272 272 272 273 272 271 271 273 276 274 274 273 273 273 274 276
272 271 272 272 272 272 272 272 272 272 272 272 272 272 273 273 271 272 271 271 272 272 270 270 271 271 271 272 271 271 272 276 276 274 273 271 271 273
270 270 271 270 271 271 271 272 271 271 270 270 270 270 271 272 271 271 271 271 270 270 270 271 272 273 273 271 268 267 270 271 274 275 276 275 272 269
267 267 267 268 269 269 270 270 269 269 269 269 269 269 270 269 270 270 269 269 270 269 269 269 270 271 270 269 268 268 268 269 270 270 271 273 274 275

GFSNE_sfc_thetae_129.txt.gz
Theta_e
331 333 330 327 324 323 320 323 317 313 313 318 319 323 323 323 319 319 322 308 306 306 307 310 312 314 314 315 317 319 321 322 322 322 323 323 321 319
329 329 327 328 327 323 325 320 321 318 314 317 321 323 323 322 317 319 319 309 304 305 304 305 307 310 311 312 313 314 316 317 319 319 319 318 318 316
327 326 324 326 325 322 322 322 320 320 315 320 321 323 320 318 315 320 317 317 313 303 302 302 303 305 306 307 308 309 311 312 313 314 315 315 315 316
324 323 321 322 322 321 319 319 318 320 318 314 316 318 318 319 317 314 310 309 309 303 301 301 301 301 302 303 303 304 305 306 306 308 309 310 310 310
322 321 321 321 319 319 318 318 317 319 318 316 312 317 310 311 302 302 301 300 300 300 300 300 300 302 301 300 300 300 299 299 298 299 300 300 301 300
321 321 322 320 320 318 317 317 317 317 316 315 312 312 310 306 306 299 295 296 294 295 296 296 298 299 299 298 298 297 296 295 294 293 293 292 292 293
321 320 322 318 310 314 317 317 317 316 314 312 311 309 306 302 303 301 296 292 291 293 292 292 293 294 295 295 295 294 293 292 291 290 289 289 288 288
319 318 319 307 307 302 303 304 315 316 313 313 311 309 308 307 303 301 292 291 290 292 289 286 289 287 290 290 292 292 291 291 290 289 287 286 286 286
320 317 316 315 309 312 299 299 300 300 301 315 313 312 309 308 304 297 297 297 293 290 290 285 286 285 288 290 291 290 290 289 288 287 286 285 284 284
319 317 316 314 313 313 311 302 298 296 298 302 316 317 316 310 306 304 301 288 287 289 289 284 285 284 285 287 289 289 288 287 287 286 285 284 284 283
316 315 315 316 303 301 305 295 288 286 290 291 292 292 296 299 300 297 292 293 285 286 286 284 283 283 284 284 286 287 287 286 286 285 285 284 283 283
306 311 299 309 294 294 302 295 291 287 287 287 288 287 289 288 288 299 298 297 286 285 286 283 282 282 279 283 284 285 285 285 285 284 284 284 283 284
297 297 293 294 293 294 295 296 293 287 285 286 285 285 285 285 285 286 287 297 290 288 287 285 283 282 281 280 281 282 283 284 283 284 284 284 283 284
291 287 288 290 290 289 288 287 287 286 286 285 284 281 281 280 281 283 284 285 286 286 287 286 284 283 281 278 277 280 281 282 283 282 283 282 281 282
286 287 287 287 286 285 285 285 286 286 285 284 280 278 279 280 282 282 282 282 281 282 284 285 284 283 282 279 277 278 277 279 282 281 282 282 283 284
283 283 282 282 283 283 283 282 282 283 282 279 278 278 280 280 280 281 280 280 278 277 280 281 283 282 279 279 279 278 279 278 280 281 282 282 284 285
283 283 282 281 280 279 279 279 280 280 278 278 278 277 278 278 278 279 279 279 277 276 275 278 280 280 281 280 278 278 278 278 280 280 280 280 281 284
278 277 277 277 277 277 277 277 278 278 278 278 278 278 277 276 276 277 278 277 275 275 275 277 278 277 277 278 280 277 279 279 279 279 280 280 280 283
275 274 274 274 275 275 276 276 275 277 278 277 276 276 276 276 276 276 276 276 276 276 277 279 278 278 275 273 277 279 278 278 278 279 280 280 280 281
273 273 272 273 273 273 274 274 275 275 276 276 276 276 276 276 276 276 276 276 276 276 276 278 279 280 278 277 276 277 279 279 279 278 279 280 280 278
272 272 273 273 273 273 274 273 273 274 275 275 276 276 276 276 275 275 275 276 277 276 274 274 274 277 278 279 276 275 277 277 279 278 278 278 277 279
269 269 271 272 273 274 274 274 274 274 274 274 275 276 276 276 275 275 275 274 274 274 274 275 277 277 277 276 274 274 275 276 276 276 275 275 276 275
267 267 268 268 271 272 273 273 273 273 273 274 274 274 275 274 275 275 275 274 274 274 274 274 275 276 275 274 274 274 272 273 275 275 276 273 273 274

GFSNE_sfc_thetae_132.txt.gz
Theta_e
333 337 336 338 337 335 332 330 326 316 321 324 325 330 331 331 325 327 327 308 306 307 308 310 313 315 315 315 316 318 320 321 322 322 323 323 324 324
333 333 337 337 335 335 332 331 329 325 317 325 326 329 328 327 322 325 322 311 305 305 305 306 309 311 311 312 312 314 316 317 319 320 321 321 322 320
329 329 330 333 333 333 332 331 329 327 322 324 326 327 326 325 324 323 320 318 313 304 303 303 304 306 307 308 308 310 311 313 315 316 318 319 318 318
326 326 326 329 330 331 327 327 328 326 321 322 325 324 324 326 323 320 317 318 317 305 304 304 302 302 303 304 304 305 306 307 308 310 311 313 314 316
326 325 324 328 328 328 325 324 327 323 321 320 321 324 321 322 312 304 307 308 304 302 299 299 300 301 302 301 303 303 303 303 303 302 303 304 305 307
326 328 325 325 328 327 323 323 324 319 319 318 318 318 315 311 311 304 298 297 295 297 297 298 299 301 301 301 301 300 300 300 299 297 296 296 297 299
325 326 325 321 313 318 322 323 322 320 317 316 315 315 309 305 306 305 299 292 292 295 293 293 295 297 297 298 300 299 297 296 295 294 293 293 292 293
324 323 323 312 310 303 303 305 317 321 317 314 315 314 311 310 309 303 293 292 292 293 290 287 290 289 291 293 294 294 294 293 292 291 291 290 290 290
325 322 320 321 312 318 301 300 301 301 304 319 317 316 312 314 309 301 299 298 293 291 290 285 287 286 290 291 292 292 292 291 290 289 288 288 287 287
323 322 320 320 318 318 315 309 311 309 306 313 322 321 319 318 314 310 302 289 288 289 290 285 286 285 286 289 291 291 290 289 288 288 287 286 285 285
321 321 321 320 306 302 311 306 297 288 291 294 294 299 302 302 307 300 292 293 286 288 288 285 284 284 285 285 287 288 288 288 287 286 286 285 285 284
311 318 300 315 298 296 312 303 298 292 289 290 290 292 292 296 294 309 298 296 286 286 287 284 284 283 280 284 285 285 285 286 286 286 285 285 284 284
300 302 304 296 296 296 302 303 303 291 288 289 288 288 287 287 288 289 293 299 292 289 289 286 284 284 282 281 283 284 284 284 284 285 285 284 284 285
294 296 294 294 294 294 294 291 289 289 289 287 287 285 285 284 283 285 285 285 287 288 288 288 286 284 281 279 278 281 283 283 283 282 283 284 283 282
286 287 288 288 287 286 287 287 287 288 287 286 285 282 282 282 283 283 283 283 282 283 285 286 287 284 283 280 278 279 278 281 282 282 282 282 283 284
285 285 284 284 285 285 285 285 285 287 288 285 282 281 282 282 282 283 281 281 280 279 282 284 285 284 280 280 279 278 279 278 281 282 283 284 284 286
282 281 282 282 281 281 280 282 283 283 281 281 281 280 280 280 280 281 281 280 278 277 277 279 282 282 282 281 278 279 280 280 282 282 281 281 283 285
278 276 275 276 277 277 278 278 279 279 280 280 279 279 278 279 278 279 279 278 276 276 276 277 278 277 278 278 282 279 280 280 281 281 281 281 281 284
274 274 273 274 274 275 276 276 276 277 279 278 278 277 278 278 278 277 277 277 277 277 278 280 281 280 276 273 277 282 279 280 281 281 282 282 282 282
274 273 273 274 274 274 274 275 276 276 277 277 277 277 278 278 277 277 277 277 277 277 278 280 281 281 278 276 276 277 281 281 282 281 281 282 282 277
272 273 274 275 275 276 276 275 275 276 277 277 277 277 278 278 277 278 278 279 279 278 276 276 278 281 281 281 277 275 277 278 280 281 280 281 280 281
271 271 272 273 274 276 276 276 276 276 276 277 277 278 279 279 278 278 278 278 277 276 275 277 279 280 280 278 276 275 276 277 276 276 275 275 278 279
270 270 270 270 271 273 275 276 276 276 276 277 277 277 278 277 277 278 277 277 277 276 277 277 278 279 278 277 277 275 275 276 277 277 277 274 273 273

GFSNE_sfc_thetae_138.txt.gz
Theta_e
323 326 328 327 329 329 327 325 319 314 317 322 323 328 328 327 323 323 324 309 307 306 308 311 314 316 317 317 318 320 321 321 322 321 322 322 323 323
325 326 326 328 329 330 329 329 326 322 317 323 323 326 328 328 322 325 325 311 305 304 305 307 310 312 313 314 314 315 317 318 319 319 320 321 322 323
326 326 326 328 328 328 327 328 327 326 322 324 325 325 324 323 323 324 322 322 313 303 303 304 306 307 309 309 310 311 312 314 315 316 318 319 321 322
326 326 326 327 326 327 327 327 327 327 325 321 324 322 321 323 322 322 320 321 322 305 303 303 304 304 305 306 306 306 307 308 309 310 312 315 317 320
323 324 324 326 326 327 326 327 328 327 326 324 322 323 320 323 319 313 314 314 310 307 301 301 302 304 304 304 304 304 304 304 304 304 305 307 309 312
314 316 319 323 323 322 325 325 324 324 324 322 322 323 317 316 316 308 304 302 301 300 301 301 302 303 304 303 303 303 302 303 302 301 301 300 301 305
301 305 309 309 303 311 322 321 321 321 322 320 320 320 314 309 312 310 310 297 295 296 296 294 299 302 304 301 304 302 301 301 301 301 300 299 299 300
295 298 301 302 306 300 301 305 314 321 320 317 317 317 318 314 315 308 298 297 297 294 292 288 291 290 291 295 300 299 299 300 300 300 300 300 300 299
294 295 297 302 300 307 305 298 299 299 303 318 316 317 317 317 314 308 302 300 298 293 291 286 287 286 289 292 294 297 297 298 299 298 297 296 295 295
293 295 298 301 303 305 309 314 311 312 310 308 319 320 320 320 316 313 308 294 289 288 290 286 285 284 286 289 293 294 294 295 295 295 294 292 291 290
289 291 292 294 296 299 307 310 311 305 299 300 303 304 303 304 311 303 295 295 286 287 287 285 284 283 284 284 287 291 291 291 291 291 291 290 289 288
285 288 288 288 287 288 293 308 310 304 297 294 293 296 298 305 298 310 302 299 287 285 287 284 284 284 280 284 284 285 287 289 289 289 289 288 286 284
283 284 285 286 286 288 288 295 305 301 292 299 299 300 296 299 302 303 302 303 291 290 289 287 284 284 283 280 282 284 285 285 285 286 288 286 286 284
281 282 283 284 285 286 286 286 289 290 295 295 293 294 294 294 291 292 293 293 293 293 289 289 286 285 281 279 279 282 283 284 284 283 284 285 285 284
281 281 281 282 282 282 283 284 286 287 289 288 291 292 290 293 286 286 285 286 286 287 290 287 289 287 285 281 279 280 280 281 283 282 283 282 282 282
279 278 278 279 279 279 280 281 282 284 286 288 289 286 285 286 287 286 286 286 284 282 285 287 288 288 283 283 282 280 280 278 280 281 281 281 282 283
277 277 276 276 275 276 277 278 279 280 281 284 284 284 285 285 284 284 286 284 283 281 280 282 284 284 284 282 280 280 279 279 280 280 280 280 281 282
274 273 274 275 275 275 276 276 277 278 278 279 281 283 282 283 283 282 283 284 283 280 279 280 281 280 280 280 283 279 279 279 280 281 282 280 280 283
271 270 270 271 274 275 275 276 276 278 279 279 279 279 279 280 280 279 279 279 278 278 279 280 280 281 277 273 279 284 279 280 280 280 281 280 280 280
270 269 269 270 270 273 275 275 276 277 278 278 278 278 278 278 278 278 278 278 278 279 278 279 279 279 277 275 275 279 283 280 280 279 277 279 280 281
268 268 269 269 269 270 272 275 276 276 277 277 278 278 279 278 277 277 277 278 278 277 275 275 277 279 279 278 273 273 276 282 282 280 278 276 276 277
267 267 267 268 268 269 270 272 273 275 275 276 277 277 277 277 276 276 277 276 276 276 276 278 279 279 277 275 272 272 272 274 277 277 277 277 277 275
267 267 267 267 267 267 268 269 271 273 274 275 275 276 277 276 277 277 277 277 277 277 278 276 277 277 276 275 273 272 272 273 274 272 272 276 276 276